Time,TemperatureF,DewpointF,PressureIn,WindDirection,WindDirectionDegrees,WindSpeedMPH,WindSpeedGustMPH,Humidity,HourlyPrecipIn,Conditions,Clouds,dailyrainin,SoftwareType,DateUTC
2013-02-03 00:04:00,30.1,15.0,30.34,WSW,257,6.0,6.0,53,0.00,,,0.00,Wunderground v.1.15,2013-02-03 07:04:00,
2013-02-03 00:05:00,30.1,15.0,30.34,West,259,5.0,6.0,53,0.00,,,0.00,Wunderground v.1.15,2013-02-03 07:05:00,
2013-02-03 00:06:00,30.2,15.5,30.34,WSW,257,6.0,6.0,54,0.00,,,0.00,Wunderground v.1.15,2013-02-03 07:06:00,
2013-02-03 00:12:00,30.2,15.5,30.33,WSW,238,5.0,5.0,54,0.00,,,0.00,Wunderground v.1.15,2013-02-03 07:12:00,
2013-02-03 00:13:00,30.3,15.2,30.34,WSW,255,4.0,5.0,53,0.00,,,0.00,Wunderground v.1.15,2013-02-03 07:13:00,
2013-02-03 00:14:00,30.3,15.2,30.34,SW,226,4.0,5.0,53,0.00,,,0.00,Wunderground v.1.15,2013-02-03 07:14:00,
2013-02-03 00:17:00,30.6,15.5,30.34,SW,217,3.0,5.0,53,0.00,,,0.00,Wunderground v.1.15,2013-02-03 07:17:00,
2013-02-03 00:20:00,31.1,15.5,30.33,SSW,204,4.0,4.0,52,0.00,,,0.00,Wunderground v.1.15,2013-02-03 07:20:00,
2013-02-03 00:21:00,31.2,15.6,30.33,SSW,207,3.0,4.0,52,0.00,,,0.00,Wunderground v.1.15,2013-02-03 07:21:00,
2013-02-03 00:22:00,31.4,15.8,30.34,WSW,243,3.0,4.0,52,0.00,,,0.00,Wunderground v.1.15,2013-02-03 07:22:00,
2013-02-03 00:26:00,31.8,15.7,30.33,WSW,250,2.0,4.0,51,0.00,,,0.00,Wunderground v.1.15,2013-02-03 07:26:00,
2013-02-03 00:27:00,31.8,15.3,30.33,WSW,253,3.0,4.0,50,0.00,,,0.00,Wunderground v.1.15,2013-02-03 07:27:00,
2013-02-03 00:28:00,31.8,15.3,30.33,West,260,3.0,4.0,50,0.00,,,0.00,Wunderground v.1.15,2013-02-03 07:28:00,
2013-02-03 00:33:00,31.7,15.2,30.33,WSW,240,4.0,5.0,50,0.00,,,0.00,Wunderground v.1.15,2013-02-03 07:33:00,
2013-02-03 00:34:00,31.6,15.1,30.33,SW,222,3.0,5.0,50,0.00,,,0.00,Wunderground v.1.15,2013-02-03 07:34:00,
2013-02-03 00:35:00,31.4,15.3,30.33,SSW,194,1.0,5.0,51,0.00,,,0.00,Wunderground v.1.15,2013-02-03 07:35:00,
2013-02-03 00:37:00,31.4,15.3,30.33,South,180,3.0,5.0,51,0.00,,,0.00,Wunderground v.1.15,2013-02-03 07:37:00,
2013-02-03 00:41:00,31.2,15.2,30.33,SSE,160,3.0,4.0,51,0.00,,,0.00,Wunderground v.1.15,2013-02-03 07:41:00,
2013-02-03 00:42:00,31.1,15.1,30.32,SSW,195,3.0,4.0,51,0.00,,,0.00,Wunderground v.1.15,2013-02-03 07:42:00,
2013-02-03 00:43:00,31.0,15.4,30.32,SW,215,3.0,4.0,52,0.00,,,0.00,Wunderground v.1.15,2013-02-03 07:43:00,
2013-02-03 00:48:00,30.8,14.8,30.32,SW,222,6.0,6.0,51,0.00,,,0.00,Wunderground v.1.15,2013-02-03 07:48:00,
2013-02-03 00:50:00,30.5,14.9,30.32,WSW,240,5.0,5.0,52,0.00,,,0.00,Wunderground v.1.15,2013-02-03 07:50:00,
2013-02-03 00:53:00,30.3,15.2,30.32,SW,222,3.0,5.0,53,0.00,,,0.00,Wunderground v.1.15,2013-02-03 07:53:00,
2013-02-03 00:54:00,30.2,15.1,30.32,SSW,210,2.0,5.0,53,0.00,,,0.00,Wunderground v.1.15,2013-02-03 07:54:00,
2013-02-03 00:55:00,30.1,15.0,30.32,SW,228,2.0,5.0,53,0.00,,,0.00,Wunderground v.1.15,2013-02-03 07:55:00,
2013-02-03 00:58:00,30.0,14.9,30.31,WSW,253,4.0,5.0,53,0.00,,,0.00,Wunderground v.1.15,2013-02-03 07:58:00,
2013-02-03 01:00:00,29.8,14.7,30.31,WSW,246,5.0,5.0,53,0.00,,,0.00,Wunderground v.1.15,2013-02-03 08:00:00,
2013-02-03 01:01:00,29.7,14.6,30.31,SW,222,6.0,6.0,53,0.00,,,0.00,Wunderground v.1.15,2013-02-03 08:01:00,
2013-02-03 01:04:00,29.5,15.7,30.31,WSW,245,5.0,6.0,56,0.00,,,0.00,Wunderground v.1.15,2013-02-03 08:04:00,
2013-02-03 01:06:00,29.5,14.9,30.31,SW,228,4.0,6.0,54,0.00,,,0.00,Wunderground v.1.15,2013-02-03 08:06:00,
2013-02-03 01:08:00,29.5,14.9,30.31,West,279,3.0,6.0,54,0.00,,,0.00,Wunderground v.1.15,2013-02-03 08:08:00,
2013-02-03 01:12:00,29.9,15.3,30.31,NNE,27,1.0,4.0,54,0.00,,,0.00,Wunderground v.1.15,2013-02-03 08:12:00,
2013-02-03 01:13:00,30.0,15.3,30.31,SSW,197,2.0,4.0,54,0.00,,,0.00,Wunderground v.1.15,2013-02-03 08:13:00,
2013-02-03 01:14:00,30.0,15.3,30.31,South,176,2.0,4.0,54,0.00,,,0.00,Wunderground v.1.15,2013-02-03 08:14:00,
2013-02-03 01:17:00,29.8,15.2,30.31,WSW,244,2.0,4.0,54,0.00,,,0.00,Wunderground v.1.15,2013-02-03 08:17:00,
2013-02-03 01:21:00,29.9,14.8,30.31,SSW,200,2.0,2.0,53,0.00,,,0.00,Wunderground v.1.15,2013-02-03 08:21:00,
2013-02-03 01:22:00,29.8,15.2,30.31,SW,215,2.0,2.0,54,0.00,,,0.00,Wunderground v.1.15,2013-02-03 08:22:00,
2013-02-03 01:23:00,29.7,15.1,30.31,SW,233,4.0,4.0,54,0.00,,,0.00,Wunderground v.1.15,2013-02-03 08:23:00,
2013-02-03 01:24:00,29.5,14.9,30.31,WSW,253,4.0,4.0,54,0.00,,,0.00,Wunderground v.1.15,2013-02-03 08:24:00,
2013-02-03 01:27:00,29.3,14.7,30.31,WSW,238,4.0,4.0,54,0.00,,,0.00,Wunderground v.1.15,2013-02-03 08:27:00,
2013-02-03 01:29:00,29.4,14.8,30.31,WSW,238,3.0,4.0,54,0.00,,,0.00,Wunderground v.1.15,2013-02-03 08:29:00,
2013-02-03 01:30:00,29.5,14.9,30.31,SW,226,2.0,3.0,54,0.00,,,0.00,Wunderground v.1.15,2013-02-03 08:30:00,
2013-02-03 01:35:00,29.6,15.0,30.31,WSW,256,5.0,5.0,54,0.00,,,0.00,Wunderground v.1.15,2013-02-03 08:35:00,
2013-02-03 01:36:00,29.6,15.0,30.30,WSW,252,5.0,5.0,54,0.00,,,0.00,Wunderground v.1.15,2013-02-03 08:36:00,
2013-02-03 01:37:00,29.6,15.0,30.30,WSW,247,4.0,5.0,54,0.00,,,0.00,Wunderground v.1.15,2013-02-03 08:37:00,
2013-02-03 01:42:00,30.0,14.9,30.30,WSW,250,4.0,5.0,53,0.00,,,0.00,Wunderground v.1.15,2013-02-03 08:42:00,
2013-02-03 01:44:00,30.0,14.9,30.30,WSW,249,5.0,5.0,53,0.00,,,0.00,Wunderground v.1.15,2013-02-03 08:44:00,
2013-02-03 01:45:00,29.8,14.7,30.30,WSW,250,5.0,5.0,53,0.00,,,0.00,Wunderground v.1.15,2013-02-03 08:45:00,
2013-02-03 01:49:00,29.4,14.4,30.30,West,259,5.0,5.0,53,0.00,,,0.00,Wunderground v.1.15,2013-02-03 08:49:00,
2013-02-03 01:50:00,29.4,14.4,30.30,WSW,253,3.0,4.0,53,0.00,,,0.00,Wunderground v.1.15,2013-02-03 08:50:00,
2013-02-03 01:54:00,29.1,15.3,30.30,SSW,212,3.0,6.0,56,0.00,,,0.00,Wunderground v.1.15,2013-02-03 08:54:00,
2013-02-03 01:56:00,29.1,14.9,30.30,West,260,4.0,6.0,55,0.00,,,0.00,Wunderground v.1.15,2013-02-03 08:56:00,
2013-02-03 01:59:00,28.9,14.3,30.29,WSW,248,4.0,6.0,54,0.00,,,0.00,Wunderground v.1.15,2013-02-03 08:59:00,
2013-02-03 02:00:00,28.7,14.1,30.29,WSW,250,6.0,6.0,54,0.00,,,0.00,Wunderground v.1.15,2013-02-03 09:00:00,
2013-02-03 02:01:00,28.5,14.4,30.29,SW,226,4.0,6.0,55,0.00,,,0.00,Wunderground v.1.15,2013-02-03 09:01:00,
2013-02-03 02:04:00,28.5,14.8,30.29,WSW,240,3.0,6.0,56,0.00,,,0.00,Wunderground v.1.15,2013-02-03 09:04:00,
2013-02-03 02:05:00,28.5,14.8,30.29,WSW,249,5.0,6.0,56,0.00,,,0.00,Wunderground v.1.15,2013-02-03 09:05:00,
2013-02-03 02:06:00,28.5,14.4,30.29,WSW,246,5.0,6.0,55,0.00,,,0.00,Wunderground v.1.15,2013-02-03 09:06:00,
2013-02-03 02:09:00,28.5,14.8,30.29,SSW,210,4.0,6.0,56,0.00,,,0.00,Wunderground v.1.15,2013-02-03 09:09:00,
2013-02-03 02:10:00,28.5,14.8,30.29,WSW,245,4.0,4.0,56,0.00,,,0.00,Wunderground v.1.15,2013-02-03 09:10:00,
2013-02-03 02:11:00,28.5,14.4,30.29,SSW,199,3.0,5.0,55,0.00,,,0.00,Wunderground v.1.15,2013-02-03 09:11:00,
2013-02-03 02:12:00,28.5,14.4,30.29,SSW,212,2.0,5.0,55,0.00,,,0.00,Wunderground v.1.15,2013-02-03 09:12:00,
2013-02-03 02:14:00,28.7,14.6,30.29,SW,215,4.0,5.0,55,0.00,,,0.00,Wunderground v.1.15,2013-02-03 09:14:00,
2013-02-03 02:15:00,28.9,14.7,30.29,WSW,238,4.0,5.0,55,0.00,,,0.00,Wunderground v.1.15,2013-02-03 09:15:00,
2013-02-03 02:16:00,29.0,14.8,30.29,SW,233,3.0,5.0,55,0.00,,,0.00,Wunderground v.1.15,2013-02-03 09:16:00,
2013-02-03 02:17:00,29.1,14.9,30.29,SW,222,3.0,5.0,55,0.00,,,0.00,Wunderground v.1.15,2013-02-03 09:17:00,
2013-02-03 02:20:00,29.1,14.9,30.29,SW,218,3.0,3.0,55,0.00,,,0.00,Wunderground v.1.15,2013-02-03 09:20:00,
2013-02-03 02:21:00,29.2,14.6,30.29,WSW,240,4.0,4.0,54,0.00,,,0.00,Wunderground v.1.15,2013-02-03 09:21:00,
2013-02-03 02:22:00,29.3,14.7,30.29,SW,235,5.0,5.0,54,0.00,,,0.00,Wunderground v.1.15,2013-02-03 09:22:00,
2013-02-03 02:25:00,29.1,14.5,30.29,SSW,204,3.0,6.0,54,0.00,,,0.00,Wunderground v.1.15,2013-02-03 09:25:00,
2013-02-03 02:26:00,29.0,14.4,30.29,SW,226,4.0,6.0,54,0.00,,,0.00,Wunderground v.1.15,2013-02-03 09:26:00,
2013-02-03 02:27:00,28.7,14.6,30.29,SW,215,2.0,6.0,55,0.00,,,0.00,Wunderground v.1.15,2013-02-03 09:27:00,
2013-02-03 02:30:00,28.4,14.3,30.28,South,191,4.0,4.0,55,0.00,,,0.00,Wunderground v.1.15,2013-02-03 09:30:00,
2013-02-03 02:31:00,28.4,14.7,30.28,SW,226,2.0,4.0,56,0.00,,,0.00,Wunderground v.1.15,2013-02-03 09:31:00,
2013-02-03 02:32:00,28.4,14.7,30.29,SSW,208,2.0,4.0,56,0.00,,,0.00,Wunderground v.1.15,2013-02-03 09:32:00,
2013-02-03 02:33:00,28.5,14.8,30.29,SW,222,4.0,4.0,56,0.00,,,0.00,Wunderground v.1.15,2013-02-03 09:33:00,
2013-02-03 02:35:00,29.0,14.8,30.28,WSW,246,4.0,5.0,55,0.00,,,0.00,Wunderground v.1.15,2013-02-03 09:35:00,
2013-02-03 02:36:00,29.1,14.9,30.28,SW,231,3.0,5.0,55,0.00,,,0.00,Wunderground v.1.15,2013-02-03 09:36:00,
2013-02-03 02:38:00,29.1,14.5,30.28,SSW,195,3.0,5.0,54,0.00,,,0.00,Wunderground v.1.15,2013-02-03 09:38:00,
2013-02-03 02:40:00,29.0,14.4,30.28,SSW,200,3.0,4.0,54,0.00,,,0.00,Wunderground v.1.15,2013-02-03 09:40:00,
2013-02-03 02:41:00,29.0,14.4,30.28,SSW,207,2.0,4.0,54,0.00,,,0.00,Wunderground v.1.15,2013-02-03 09:41:00,
2013-02-03 02:43:00,28.9,14.7,30.28,SSW,197,3.0,4.0,55,0.00,,,0.00,Wunderground v.1.15,2013-02-03 09:43:00,
2013-02-03 02:46:00,28.8,14.6,30.28,SW,228,2.0,4.0,55,0.00,,,0.00,Wunderground v.1.15,2013-02-03 09:46:00,
2013-02-03 02:48:00,28.9,14.3,30.28,WSW,250,4.0,4.0,54,0.00,,,0.00,Wunderground v.1.15,2013-02-03 09:48:00,
2013-02-03 02:51:00,29.0,14.8,30.28,SSW,203,4.0,5.0,55,0.00,,,0.00,Wunderground v.1.15,2013-02-03 09:51:00,
2013-02-03 02:53:00,28.9,14.3,30.28,SW,231,3.0,5.0,54,0.00,,,0.00,Wunderground v.1.15,2013-02-03 09:53:00,
2013-02-03 02:56:00,28.9,14.3,30.28,SW,217,4.0,5.0,54,0.00,,,0.00,Wunderground v.1.15,2013-02-03 09:56:00,
2013-02-03 02:58:00,28.8,14.2,30.28,SW,225,4.0,5.0,54,0.00,,,0.00,Wunderground v.1.15,2013-02-03 09:58:00,
2013-02-03 02:59:00,28.8,14.2,30.28,SW,215,3.0,5.0,54,0.00,,,0.00,Wunderground v.1.15,2013-02-03 09:59:00,
2013-02-03 03:01:00,28.7,14.6,30.28,SW,228,4.0,4.0,55,0.00,,,0.00,Wunderground v.1.15,2013-02-03 10:01:00,
2013-02-03 03:03:00,28.7,14.6,30.28,SSW,201,3.0,4.0,55,0.00,,,0.00,Wunderground v.1.15,2013-02-03 10:03:00,
2013-02-03 03:04:00,28.7,14.6,30.28,WSW,243,5.0,6.0,55,0.00,,,0.00,Wunderground v.1.15,2013-02-03 10:04:00,
2013-02-03 03:06:00,28.7,14.1,30.28,SSW,205,3.0,6.0,54,0.00,,,0.00,Wunderground v.1.15,2013-02-03 10:06:00,
2013-02-03 03:08:00,28.7,14.6,30.27,SSW,200,5.0,6.0,55,0.00,,,0.00,Wunderground v.1.15,2013-02-03 10:08:00,
2013-02-03 03:09:00,28.7,14.6,30.28,SW,236,4.0,6.0,55,0.00,,,0.00,Wunderground v.1.15,2013-02-03 10:09:00,
2013-02-03 03:11:00,29.0,14.4,30.27,WSW,248,5.0,6.0,54,0.00,,,0.00,Wunderground v.1.15,2013-02-03 10:11:00,
2013-02-03 03:12:00,29.1,14.5,30.27,WSW,240,4.0,6.0,54,0.00,,,0.00,Wunderground v.1.15,2013-02-03 10:12:00,
2013-02-03 03:13:00,29.4,14.4,30.27,SSW,203,2.0,6.0,53,0.00,,,0.00,Wunderground v.1.15,2013-02-03 10:13:00,
2013-02-03 03:14:00,29.4,14.4,30.27,SW,229,3.0,6.0,53,0.00,,,0.00,Wunderground v.1.15,2013-02-03 10:14:00,
2013-02-03 03:16:00,29.4,14.4,30.27,WSW,246,4.0,6.0,53,0.00,,,0.00,Wunderground v.1.15,2013-02-03 10:16:00,
2013-02-03 03:17:00,29.5,14.5,30.27,SW,224,3.0,6.0,53,0.00,,,0.00,Wunderground v.1.15,2013-02-03 10:17:00,
2013-02-03 03:18:00,29.6,14.5,30.27,WSW,240,3.0,6.0,53,0.00,,,0.00,Wunderground v.1.15,2013-02-03 10:18:00,
2013-02-03 03:19:00,29.7,14.6,30.27,SW,217,4.0,6.0,53,0.00,,,0.00,Wunderground v.1.15,2013-02-03 10:19:00,
2013-02-03 03:22:00,30.0,14.5,30.27,SSW,193,3.0,4.0,52,0.00,,,0.00,Wunderground v.1.15,2013-02-03 10:22:00,
2013-02-03 03:23:00,30.0,14.5,30.27,SSW,193,3.0,4.0,52,0.00,,,0.00,Wunderground v.1.15,2013-02-03 10:23:00,
2013-02-03 03:24:00,30.0,14.5,30.27,WSW,253,4.0,5.0,52,0.00,,,0.00,Wunderground v.1.15,2013-02-03 10:24:00,
2013-02-03 03:27:00,30.1,14.1,30.26,SW,228,3.0,5.0,51,0.00,,,0.00,Wunderground v.1.15,2013-02-03 10:27:00,
2013-02-03 03:28:00,30.2,14.7,30.26,SSW,204,4.0,5.0,52,0.00,,,0.00,Wunderground v.1.15,2013-02-03 10:28:00,
2013-02-03 03:29:00,30.2,14.2,30.26,WSW,240,5.0,5.0,51,0.00,,,0.00,Wunderground v.1.15,2013-02-03 10:29:00,
2013-02-03 03:32:00,30.3,14.3,30.26,SSW,212,2.0,4.0,51,0.00,,,0.00,Wunderground v.1.15,2013-02-03 10:32:00,
2013-02-03 03:33:00,30.2,14.2,30.26,WSW,247,3.0,4.0,51,0.00,,,0.00,Wunderground v.1.15,2013-02-03 10:33:00,
2013-02-03 03:34:00,30.2,14.2,30.26,WSW,250,5.0,6.0,51,0.00,,,0.00,Wunderground v.1.15,2013-02-03 10:34:00,
2013-02-03 03:37:00,30.0,14.5,30.26,SSW,212,4.0,6.0,52,0.00,,,0.00,Wunderground v.1.15,2013-02-03 10:37:00,
2013-02-03 03:39:00,30.0,14.0,30.26,SW,235,5.0,6.0,51,0.00,,,0.00,Wunderground v.1.15,2013-02-03 10:39:00,
2013-02-03 03:42:00,30.0,14.5,30.25,WSW,250,4.0,4.0,52,0.00,,,0.00,Wunderground v.1.15,2013-02-03 10:42:00,
2013-02-03 03:44:00,30.0,14.5,30.26,West,259,6.0,7.0,52,0.00,,,0.00,Wunderground v.1.15,2013-02-03 10:44:00,
2013-02-03 03:48:00,30.0,14.5,30.26,SW,235,3.0,7.0,52,0.00,,,0.00,Wunderground v.1.15,2013-02-03 10:48:00,
2013-02-03 03:49:00,30.0,14.5,30.25,SW,225,4.0,7.0,52,0.00,,,0.00,Wunderground v.1.15,2013-02-03 10:49:00,
2013-02-03 03:50:00,30.0,14.5,30.25,SW,224,3.0,4.0,52,0.00,,,0.00,Wunderground v.1.15,2013-02-03 10:50:00,
2013-02-03 03:53:00,29.9,14.4,30.25,SW,231,4.0,6.0,52,0.00,,,0.00,Wunderground v.1.15,2013-02-03 10:53:00,
2013-02-03 03:54:00,29.9,14.4,30.25,South,172,3.0,6.0,52,0.00,,,0.00,Wunderground v.1.15,2013-02-03 10:54:00,
2013-02-03 03:55:00,29.9,14.4,30.25,SSW,198,2.0,6.0,52,0.00,,,0.00,Wunderground v.1.15,2013-02-03 10:55:00,
2013-02-03 03:58:00,29.8,14.3,30.25,SW,235,3.0,6.0,52,0.00,,,0.00,Wunderground v.1.15,2013-02-03 10:58:00,
2013-02-03 03:59:00,30.0,14.5,30.25,WSW,243,2.0,6.0,52,0.00,,,0.00,Wunderground v.1.15,2013-02-03 10:59:00,
2013-02-03 04:00:00,30.1,14.1,30.25,WSW,245,2.0,3.0,51,0.00,,,0.00,Wunderground v.1.15,2013-02-03 11:00:00,
2013-02-03 04:03:00,30.4,14.4,30.25,WSW,255,5.0,5.0,51,0.00,,,0.00,Wunderground v.1.15,2013-02-03 11:03:00,
2013-02-03 04:04:00,30.5,14.0,30.25,SW,231,3.0,5.0,50,0.00,,,0.00,Wunderground v.1.15,2013-02-03 11:04:00,
2013-02-03 04:05:00,30.5,14.0,30.25,South,190,3.0,5.0,50,0.00,,,0.00,Wunderground v.1.15,2013-02-03 11:05:00,
2013-02-03 04:08:00,30.5,14.0,30.25,WSW,250,3.0,5.0,50,0.00,,,0.00,Wunderground v.1.15,2013-02-03 11:08:00,
2013-02-03 04:09:00,30.5,14.0,30.25,SSW,194,3.0,5.0,50,0.00,,,0.00,Wunderground v.1.15,2013-02-03 11:09:00,
2013-02-03 04:10:00,30.6,14.1,30.25,SW,215,4.0,4.0,50,0.00,,,0.00,Wunderground v.1.15,2013-02-03 11:10:00,
2013-02-03 04:13:00,30.7,14.2,30.25,WSW,252,6.0,6.0,50,0.00,,,0.00,Wunderground v.1.15,2013-02-03 11:13:00,
2013-02-03 04:14:00,30.6,14.1,30.25,WSW,252,6.0,7.0,50,0.00,,,0.00,Wunderground v.1.15,2013-02-03 11:14:00,
2013-02-03 04:15:00,30.5,14.0,30.25,WSW,253,4.0,7.0,50,0.00,,,0.00,Wunderground v.1.15,2013-02-03 11:15:00,
2013-02-03 04:18:00,30.2,14.2,30.25,SSW,194,5.0,7.0,51,0.00,,,0.00,Wunderground v.1.15,2013-02-03 11:18:00,
2013-02-03 04:19:00,30.1,14.1,30.25,SW,226,4.0,7.0,51,0.00,,,0.00,Wunderground v.1.15,2013-02-03 11:19:00,
2013-02-03 04:20:00,30.1,14.1,30.25,SW,224,4.0,4.0,51,0.00,,,0.00,Wunderground v.1.15,2013-02-03 11:20:00,
2013-02-03 04:23:00,30.3,14.3,30.24,WSW,238,3.0,4.0,51,0.00,,,0.00,Wunderground v.1.15,2013-02-03 11:23:00,
2013-02-03 04:24:00,30.3,14.3,30.24,SSW,201,4.0,5.0,51,0.00,,,0.00,Wunderground v.1.15,2013-02-03 11:24:00,
2013-02-03 04:25:00,30.3,14.3,30.24,SW,225,3.0,5.0,51,0.00,,,0.00,Wunderground v.1.15,2013-02-03 11:25:00,
2013-02-03 04:28:00,30.2,14.2,30.24,WSW,253,4.0,5.0,51,0.00,,,0.00,Wunderground v.1.15,2013-02-03 11:28:00,
2013-02-03 04:29:00,30.3,14.3,30.24,SW,225,4.0,5.0,51,0.00,,,0.00,Wunderground v.1.15,2013-02-03 11:29:00,
2013-02-03 04:30:00,30.4,14.4,30.24,SW,233,4.0,4.0,51,0.00,,,0.00,Wunderground v.1.15,2013-02-03 11:30:00,
2013-02-03 04:33:00,30.5,14.0,30.24,SW,226,2.0,6.0,50,0.00,,,0.00,Wunderground v.1.15,2013-02-03 11:33:00,
2013-02-03 04:34:00,30.5,14.0,30.24,SW,229,3.0,6.0,50,0.00,,,0.00,Wunderground v.1.15,2013-02-03 11:34:00,
2013-02-03 04:35:00,30.5,14.0,30.24,WSW,247,4.0,6.0,50,0.00,,,0.00,Wunderground v.1.15,2013-02-03 11:35:00,
2013-02-03 04:38:00,30.4,14.4,30.23,South,191,3.0,6.0,51,0.00,,,0.00,Wunderground v.1.15,2013-02-03 11:38:00,
2013-02-03 04:39:00,30.3,14.3,30.23,SW,217,2.0,6.0,51,0.00,,,0.00,Wunderground v.1.15,2013-02-03 11:39:00,
2013-02-03 04:40:00,30.2,14.2,30.23,WSW,246,4.0,4.0,51,0.00,,,0.00,Wunderground v.1.15,2013-02-03 11:40:00,
2013-02-03 04:43:00,30.4,14.4,30.23,SSW,198,3.0,5.0,51,0.00,,,0.00,Wunderground v.1.15,2013-02-03 11:43:00,
2013-02-03 04:45:00,30.3,14.3,30.23,South,176,4.0,5.0,51,0.00,,,0.00,Wunderground v.1.15,2013-02-03 11:45:00,
2013-02-03 04:48:00,30.2,14.2,30.23,SW,221,2.0,5.0,51,0.00,,,0.00,Wunderground v.1.15,2013-02-03 11:48:00,
2013-02-03 04:50:00,30.2,14.2,30.23,SW,228,2.0,3.0,51,0.00,,,0.00,Wunderground v.1.15,2013-02-03 11:50:00,
2013-02-03 04:53:00,29.9,14.4,30.23,SSW,203,4.0,4.0,52,0.00,,,0.00,Wunderground v.1.15,2013-02-03 11:53:00,
2013-02-03 04:55:00,29.8,13.9,30.23,WSW,256,4.0,5.0,51,0.00,,,0.00,Wunderground v.1.15,2013-02-03 11:55:00,
2013-02-03 04:56:00,29.7,13.8,30.23,SW,215,3.0,5.0,51,0.00,,,0.00,Wunderground v.1.15,2013-02-03 11:56:00,
2013-02-03 04:58:00,29.4,13.9,30.23,SSW,210,3.0,5.0,52,0.00,,,0.00,Wunderground v.1.15,2013-02-03 11:58:00,
2013-02-03 04:59:00,29.4,13.9,30.23,SSW,200,2.0,5.0,52,0.00,,,0.00,Wunderground v.1.15,2013-02-03 11:59:00,
2013-02-03 05:00:00,29.4,13.9,30.23,WSW,253,5.0,5.0,52,0.00,,,0.00,Wunderground v.1.15,2013-02-03 12:00:00,
2013-02-03 05:01:00,29.5,14.0,30.23,WSW,257,6.0,6.0,52,0.00,,,0.00,Wunderground v.1.15,2013-02-03 12:01:00,
2013-02-03 05:03:00,29.5,14.0,30.23,South,178,5.0,7.0,52,0.00,,,0.00,Wunderground v.1.15,2013-02-03 12:03:00,
2013-02-03 05:04:00,29.5,14.0,30.23,South,186,5.0,7.0,52,0.00,,,0.00,Wunderground v.1.15,2013-02-03 12:04:00,
2013-02-03 05:05:00,29.5,14.0,30.23,SSW,193,4.0,7.0,52,0.00,,,0.00,Wunderground v.1.15,2013-02-03 12:05:00,
2013-02-03 05:06:00,29.5,14.0,30.23,SSW,200,4.0,7.0,52,0.00,,,0.00,Wunderground v.1.15,2013-02-03 12:06:00,
2013-02-03 05:08:00,29.5,14.5,30.23,SW,233,4.0,7.0,53,0.00,,,0.00,Wunderground v.1.15,2013-02-03 12:08:00,
2013-02-03 05:09:00,29.5,14.0,30.23,WSW,255,5.0,7.0,52,0.00,,,0.00,Wunderground v.1.15,2013-02-03 12:09:00,
2013-02-03 05:10:00,29.6,14.1,30.22,WSW,245,3.0,4.0,52,0.00,,,0.00,Wunderground v.1.15,2013-02-03 12:10:00,
2013-02-03 05:11:00,29.6,14.1,30.22,WSW,253,4.0,4.0,52,0.00,,,0.00,Wunderground v.1.15,2013-02-03 12:11:00,
2013-02-03 05:14:00,29.6,14.1,30.22,SW,226,3.0,5.0,52,0.00,,,0.00,Wunderground v.1.15,2013-02-03 12:14:00,
2013-02-03 05:15:00,29.6,14.1,30.22,SSW,207,4.0,5.0,52,0.00,,,0.00,Wunderground v.1.15,2013-02-03 12:15:00,
2013-02-03 05:16:00,29.6,14.1,30.22,SSW,204,3.0,5.0,52,0.00,,,0.00,Wunderground v.1.15,2013-02-03 12:16:00,
2013-02-03 05:19:00,29.8,13.9,30.22,SW,215,2.0,6.0,51,0.00,,,0.00,Wunderground v.1.15,2013-02-03 12:19:00,
2013-02-03 05:20:00,30.0,14.0,30.22,SSW,193,3.0,4.0,51,0.00,,,0.00,Wunderground v.1.15,2013-02-03 12:20:00,
2013-02-03 05:21:00,30.0,14.0,30.22,SSW,208,4.0,5.0,51,0.00,,,0.00,Wunderground v.1.15,2013-02-03 12:21:00,
2013-02-03 05:24:00,30.0,14.0,30.22,SW,231,3.0,5.0,51,0.00,,,0.00,Wunderground v.1.15,2013-02-03 12:24:00,
2013-02-03 05:25:00,30.0,14.0,30.22,SSW,206,2.0,5.0,51,0.00,,,0.00,Wunderground v.1.15,2013-02-03 12:25:00,
2013-02-03 05:26:00,29.9,13.9,30.22,SSW,207,3.0,5.0,51,0.00,,,0.00,Wunderground v.1.15,2013-02-03 12:26:00,
2013-02-03 05:29:00,29.7,13.8,30.21,West,276,5.0,7.0,51,0.00,,,0.00,Wunderground v.1.15,2013-02-03 12:29:00,
2013-02-03 05:31:00,29.4,13.9,30.21,WSW,251,5.0,7.0,52,0.00,,,0.00,Wunderground v.1.15,2013-02-03 12:31:00,
2013-02-03 05:34:00,29.4,13.9,30.21,SSW,203,4.0,7.0,52,0.00,,,0.00,Wunderground v.1.15,2013-02-03 12:34:00,
2013-02-03 05:36:00,29.5,14.0,30.21,SW,233,5.0,7.0,52,0.00,,,0.00,Wunderground v.1.15,2013-02-03 12:36:00,
2013-02-03 05:39:00,29.9,13.9,30.21,West,264,4.0,7.0,51,0.00,,,0.00,Wunderground v.1.15,2013-02-03 12:39:00,
2013-02-03 05:41:00,29.9,13.9,30.21,SW,222,3.0,5.0,51,0.00,,,0.00,Wunderground v.1.15,2013-02-03 12:41:00,
2013-02-03 05:44:00,30.0,14.0,30.21,SSW,200,3.0,5.0,51,0.00,,,0.00,Wunderground v.1.15,2013-02-03 12:44:00,
2013-02-03 05:45:00,30.0,14.0,30.21,SSW,199,4.0,5.0,51,0.00,,,0.00,Wunderground v.1.15,2013-02-03 12:45:00,
2013-02-03 05:46:00,30.2,14.2,30.21,WSW,257,3.0,5.0,51,0.00,,,0.00,Wunderground v.1.15,2013-02-03 12:46:00,
2013-02-03 05:50:00,30.0,13.6,30.21,West,264,0.0,3.0,50,0.00,,,0.00,Wunderground v.1.15,2013-02-03 12:50:00,
2013-02-03 05:51:00,29.7,13.8,30.21,South,189,3.0,4.0,51,0.00,,,0.00,Wunderground v.1.15,2013-02-03 12:51:00,
2013-02-03 05:55:00,29.6,14.1,30.21,SW,228,3.0,5.0,52,0.00,,,0.00,Wunderground v.1.15,2013-02-03 12:55:00,
2013-02-03 05:56:00,29.5,14.0,30.21,WSW,253,5.0,6.0,52,0.00,,,0.00,Wunderground v.1.15,2013-02-03 12:56:00,
2013-02-03 05:57:00,29.5,14.0,30.21,WSW,246,4.0,6.0,52,0.00,,,0.00,Wunderground v.1.15,2013-02-03 12:57:00,
2013-02-03 06:00:00,29.4,13.9,30.21,WSW,250,4.0,4.0,52,0.00,,,0.00,Wunderground v.1.15,2013-02-03 13:00:00,
2013-02-03 06:02:00,29.5,14.0,30.21,West,266,5.0,6.0,52,0.00,,,0.00,Wunderground v.1.15,2013-02-03 13:02:00,
2013-02-03 06:05:00,29.6,14.1,30.21,SW,225,2.0,6.0,52,0.00,,,0.00,Wunderground v.1.15,2013-02-03 13:05:00,
2013-02-03 06:07:00,29.4,14.4,30.21,SSW,195,5.0,6.0,53,0.00,,,0.00,Wunderground v.1.15,2013-02-03 13:07:00,
2013-02-03 06:10:00,29.5,14.5,30.21,WSW,256,7.0,7.0,53,0.00,,,0.00,Wunderground v.1.15,2013-02-03 13:10:00,
2013-02-03 06:12:00,29.4,14.4,30.21,WSW,257,4.0,7.0,53,0.00,,,0.00,Wunderground v.1.15,2013-02-03 13:12:00,
2013-02-03 06:15:00,29.0,14.4,30.21,WSW,239,2.0,7.0,54,0.00,,,0.00,Wunderground v.1.15,2013-02-03 13:15:00,
2013-02-03 06:16:00,29.0,14.4,30.21,WSW,253,3.0,7.0,54,0.00,,,0.00,Wunderground v.1.15,2013-02-03 13:16:00,
2013-02-03 06:17:00,29.0,14.4,30.21,WSW,255,7.0,7.0,54,0.00,,,0.00,Wunderground v.1.15,2013-02-03 13:17:00,
2013-02-03 06:20:00,29.0,14.4,30.20,WSW,254,4.0,5.0,54,0.00,,,0.00,Wunderground v.1.15,2013-02-03 13:20:00,
2013-02-03 06:21:00,29.0,14.4,30.20,WSW,250,5.0,6.0,54,0.00,,,0.00,Wunderground v.1.15,2013-02-03 13:21:00,
2013-02-03 06:22:00,29.2,14.6,30.20,WSW,245,3.0,6.0,54,0.00,,,0.00,Wunderground v.1.15,2013-02-03 13:22:00,
2013-02-03 06:25:00,29.4,13.9,30.20,SW,226,1.0,6.0,52,0.00,,,0.00,Wunderground v.1.15,2013-02-03 13:25:00,
2013-02-03 06:26:00,29.4,13.9,30.20,SSW,197,1.0,6.0,52,0.00,,,0.00,Wunderground v.1.15,2013-02-03 13:26:00,
2013-02-03 06:27:00,29.5,14.5,30.20,SSW,195,5.0,6.0,53,0.00,,,0.00,Wunderground v.1.15,2013-02-03 13:27:00,
2013-02-03 06:31:00,29.9,13.9,30.20,SSW,195,2.0,4.0,51,0.00,,,0.00,Wunderground v.1.15,2013-02-03 13:31:00,
2013-02-03 06:32:00,30.0,14.0,30.20,WSW,250,3.0,4.0,51,0.00,,,0.00,Wunderground v.1.15,2013-02-03 13:32:00,
2013-02-03 06:36:00,30.0,14.0,30.20,South,183,3.0,4.0,51,0.00,,,0.00,Wunderground v.1.15,2013-02-03 13:36:00,
2013-02-03 06:37:00,29.9,13.9,30.20,WSW,238,2.0,4.0,51,0.00,,,0.00,Wunderground v.1.15,2013-02-03 13:37:00,
2013-02-03 06:41:00,30.1,13.7,30.20,SSW,210,3.0,4.0,50,0.00,,,0.00,Wunderground v.1.15,2013-02-03 13:41:00,
2013-02-03 06:43:00,30.1,14.1,30.20,South,190,2.0,4.0,51,0.00,,,0.00,Wunderground v.1.15,2013-02-03 13:43:00,
2013-02-03 06:46:00,29.9,13.5,30.20,West,260,2.0,4.0,50,0.00,,,0.00,Wunderground v.1.15,2013-02-03 13:46:00,
2013-02-03 06:48:00,29.9,13.5,30.20,WSW,249,4.0,4.0,50,0.00,,,0.00,Wunderground v.1.15,2013-02-03 13:48:00,
2013-02-03 06:51:00,30.0,13.1,30.20,South,191,4.0,5.0,49,0.00,,,0.00,Wunderground v.1.15,2013-02-03 13:51:00,
2013-02-03 06:53:00,30.1,13.2,30.19,SW,228,3.0,5.0,49,0.00,,,0.00,Wunderground v.1.15,2013-02-03 13:53:00,
2013-02-03 06:56:00,30.6,13.2,30.19,WSW,255,4.0,5.0,48,0.00,,,0.00,Wunderground v.1.15,2013-02-03 13:56:00,
2013-02-03 06:58:00,30.8,12.9,30.19,WSW,246,4.0,5.0,47,0.00,,,0.00,Wunderground v.1.15,2013-02-03 13:58:00,
2013-02-03 07:01:00,30.9,12.5,30.19,WSW,240,6.0,6.0,46,0.00,,,0.00,Wunderground v.1.15,2013-02-03 14:01:00,
2013-02-03 07:03:00,31.2,12.8,30.19,SW,235,4.0,6.0,46,0.00,,,0.00,Wunderground v.1.15,2013-02-03 14:03:00,
2013-02-03 07:06:00,31.7,12.8,30.19,SW,217,6.0,6.0,45,0.00,,,0.00,Wunderground v.1.15,2013-02-03 14:06:00,
2013-02-03 07:07:00,31.7,12.8,30.19,SW,215,5.0,6.0,45,0.00,,,0.00,Wunderground v.1.15,2013-02-03 14:07:00,
2013-02-03 07:08:00,31.6,12.7,30.19,SW,235,4.0,6.0,45,0.00,,,0.00,Wunderground v.1.15,2013-02-03 14:08:00,
2013-02-03 07:12:00,31.6,12.7,30.19,West,259,4.0,6.0,45,0.00,,,0.00,Wunderground v.1.15,2013-02-03 14:12:00,
2013-02-03 07:13:00,31.7,12.8,30.19,SSW,207,5.0,6.0,45,0.00,,,0.00,Wunderground v.1.15,2013-02-03 14:13:00,
2013-02-03 07:17:00,31.5,13.1,30.18,SW,226,4.0,7.0,46,0.00,,,0.00,Wunderground v.1.15,2013-02-03 14:17:00,
2013-02-03 07:18:00,31.5,13.1,30.18,WSW,240,3.0,7.0,46,0.00,,,0.00,Wunderground v.1.15,2013-02-03 14:18:00,
2013-02-03 07:22:00,32.1,12.6,30.18,SW,228,1.0,5.0,44,0.00,,,0.00,Wunderground v.1.15,2013-02-03 14:22:00,
2013-02-03 07:23:00,32.1,13.1,30.18,South,186,4.0,5.0,45,0.00,,,0.00,Wunderground v.1.15,2013-02-03 14:23:00,
2013-02-03 07:24:00,32.1,14.1,30.18,SSW,200,4.0,5.0,47,0.00,,,0.00,Wunderground v.1.15,2013-02-03 14:24:00,
2013-02-03 07:27:00,31.5,13.1,30.18,WSW,257,6.0,7.0,46,0.00,,,0.00,Wunderground v.1.15,2013-02-03 14:27:00,
2013-02-03 07:28:00,31.0,12.6,30.18,West,271,4.0,7.0,46,0.00,,,0.00,Wunderground v.1.15,2013-02-03 14:28:00,
2013-02-03 07:29:00,30.9,13.0,30.18,West,263,4.0,7.0,47,0.00,,,0.00,Wunderground v.1.15,2013-02-03 14:29:00,
2013-02-03 07:32:00,30.4,12.5,30.18,WSW,248,4.0,6.0,47,0.00,,,0.00,Wunderground v.1.15,2013-02-03 14:32:00,
2013-02-03 07:33:00,30.5,12.6,30.18,West,279,4.0,6.0,47,0.00,,,0.00,Wunderground v.1.15,2013-02-03 14:33:00,
2013-02-03 07:34:00,30.5,12.6,30.18,West,269,2.0,6.0,47,0.00,,,0.00,Wunderground v.1.15,2013-02-03 14:34:00,
2013-02-03 07:37:00,30.7,12.8,30.18,South,172,3.0,6.0,47,0.00,,,0.00,Wunderground v.1.15,2013-02-03 14:37:00,
2013-02-03 07:38:00,30.8,13.4,30.18,South,183,4.0,6.0,48,0.00,,,0.00,Wunderground v.1.15,2013-02-03 14:38:00,
2013-02-03 07:39:00,30.9,14.4,30.18,SSW,195,3.0,6.0,50,0.00,,,0.00,Wunderground v.1.15,2013-02-03 14:39:00,
2013-02-03 07:42:00,31.4,13.0,30.18,SW,233,3.0,7.0,46,0.00,,,0.00,Wunderground v.1.15,2013-02-03 14:42:00,
2013-02-03 07:43:00,31.6,13.2,30.18,South,186,4.0,7.0,46,0.00,,,0.00,Wunderground v.1.15,2013-02-03 14:43:00,
2013-02-03 07:44:00,31.7,13.7,30.18,SSE,165,6.0,7.0,47,0.00,,,0.00,Wunderground v.1.15,2013-02-03 14:44:00,
2013-02-03 07:47:00,31.9,13.4,30.18,SW,217,3.0,7.0,46,0.00,,,0.00,Wunderground v.1.15,2013-02-03 14:47:00,
2013-02-03 07:48:00,32.1,13.1,30.17,SSW,212,2.0,7.0,45,0.00,,,0.00,Wunderground v.1.15,2013-02-03 14:48:00,
2013-02-03 07:50:00,32.2,14.2,30.17,South,181,3.0,4.0,47,0.00,,,0.00,Wunderground v.1.15,2013-02-03 14:50:00,
2013-02-03 07:52:00,32.3,14.8,30.17,South,188,4.0,6.0,48,0.00,,,0.00,Wunderground v.1.15,2013-02-03 14:52:00,
2013-02-03 07:53:00,32.3,14.3,30.17,SSW,213,3.0,6.0,47,0.00,,,0.00,Wunderground v.1.15,2013-02-03 14:53:00,
2013-02-03 07:55:00,32.5,13.0,30.17,SSW,213,3.0,6.0,44,0.00,,,0.00,Wunderground v.1.15,2013-02-03 14:55:00,
2013-02-03 07:57:00,33.1,14.0,30.17,South,183,3.0,6.0,45,0.00,,,0.00,Wunderground v.1.15,2013-02-03 14:57:00,
2013-02-03 07:58:00,33.2,15.1,30.17,South,191,3.0,6.0,47,0.00,,,0.00,Wunderground v.1.15,2013-02-03 14:58:00,
2013-02-03 08:00:00,33.3,16.2,30.17,SSW,194,3.0,4.0,49,0.00,,,0.00,Wunderground v.1.15,2013-02-03 15:00:00,
2013-02-03 08:02:00,33.2,16.1,30.17,South,169,2.0,4.0,49,0.00,,,0.00,Wunderground v.1.15,2013-02-03 15:02:00,
2013-02-03 08:03:00,33.2,16.1,30.17,SSE,163,3.0,4.0,49,0.00,,,0.00,Wunderground v.1.15,2013-02-03 15:03:00,
2013-02-03 08:05:00,33.2,15.6,30.17,SSW,203,3.0,4.0,48,0.00,,,0.00,Wunderground v.1.15,2013-02-03 15:05:00,
2013-02-03 08:07:00,33.4,15.8,30.17,West,260,4.0,5.0,48,0.00,,,0.00,Wunderground v.1.15,2013-02-03 15:07:00,
2013-02-03 08:08:00,33.4,15.3,30.17,West,264,4.0,5.0,47,0.00,,,0.00,Wunderground v.1.15,2013-02-03 15:08:00,
2013-02-03 08:09:00,33.5,15.4,30.17,WSW,238,3.0,5.0,47,0.00,,,0.00,Wunderground v.1.15,2013-02-03 15:09:00,
2013-02-03 08:10:00,33.6,14.5,30.17,SSE,160,2.0,3.0,45,0.00,,,0.00,Wunderground v.1.15,2013-02-03 15:10:00,
2013-02-03 08:12:00,33.9,16.3,30.17,South,188,5.0,5.0,48,0.00,,,0.00,Wunderground v.1.15,2013-02-03 15:12:00,
2013-02-03 08:13:00,34.0,16.3,30.17,South,186,3.0,5.0,48,0.00,,,0.00,Wunderground v.1.15,2013-02-03 15:13:00,
2013-02-03 08:14:00,34.0,16.3,30.17,SSE,160,1.0,5.0,48,0.00,,,0.00,Wunderground v.1.15,2013-02-03 15:14:00,
2013-02-03 08:15:00,34.3,17.6,30.16,SW,215,3.0,5.0,50,0.00,,,0.00,Wunderground v.1.15,2013-02-03 15:15:00,
2013-02-03 08:18:00,34.5,17.3,30.16,West,260,2.0,5.0,49,0.00,,,0.00,Wunderground v.1.15,2013-02-03 15:18:00,
2013-02-03 08:19:00,34.7,16.5,30.16,West,266,1.0,5.0,47,0.00,,,0.00,Wunderground v.1.15,2013-02-03 15:19:00,
2013-02-03 08:21:00,34.9,16.7,30.16,West,266,0.0,2.0,47,0.00,,,0.00,Wunderground v.1.15,2013-02-03 15:21:00,
2013-02-03 08:23:00,35.1,17.4,30.16,SW,217,2.0,3.0,48,0.00,,,0.00,Wunderground v.1.15,2013-02-03 15:23:00,
2013-02-03 08:24:00,35.2,17.4,30.16,SW,231,1.0,3.0,48,0.00,,,0.00,Wunderground v.1.15,2013-02-03 15:24:00,
2013-02-03 08:26:00,35.4,15.6,30.16,SW,231,0.0,3.0,44,0.00,,,0.00,Wunderground v.1.15,2013-02-03 15:26:00,
2013-02-03 08:28:00,35.7,15.9,30.16,SW,231,0.0,3.0,44,0.00,,,0.00,Wunderground v.1.15,2013-02-03 15:28:00,
2013-02-03 08:29:00,35.8,16.5,30.16,SE,130,3.0,3.0,45,0.00,,,0.00,Wunderground v.1.15,2013-02-03 15:29:00,
2013-02-03 08:31:00,36.0,17.2,30.16,SE,135,1.0,3.0,46,0.00,,,0.00,Wunderground v.1.15,2013-02-03 15:31:00,
2013-02-03 08:33:00,36.2,17.4,30.16,NNW,340,5.0,5.0,46,0.00,,,0.00,Wunderground v.1.15,2013-02-03 15:33:00,
2013-02-03 08:34:00,36.2,16.4,30.16,NW,321,3.0,5.0,44,0.00,,,0.00,Wunderground v.1.15,2013-02-03 15:34:00,
2013-02-03 08:36:00,36.3,16.4,30.15,East,79,2.0,5.0,44,0.00,,,0.00,Wunderground v.1.15,2013-02-03 15:36:00,
2013-02-03 08:38:00,36.3,15.4,30.15,East,86,4.0,5.0,42,0.00,,,0.00,Wunderground v.1.15,2013-02-03 15:38:00,
2013-02-03 08:39:00,36.3,14.3,30.15,ENE,77,2.0,5.0,40,0.00,,,0.00,Wunderground v.1.15,2013-02-03 15:39:00,
2013-02-03 08:41:00,36.3,14.8,30.15,East,79,1.0,3.0,41,0.00,,,0.00,Wunderground v.1.15,2013-02-03 15:41:00,
2013-02-03 08:43:00,36.1,15.2,30.15,NNE,30,3.0,4.0,42,0.00,,,0.00,Wunderground v.1.15,2013-02-03 15:43:00,
2013-02-03 08:44:00,36.1,15.2,30.15,NE,39,3.0,4.0,42,0.00,,,0.00,Wunderground v.1.15,2013-02-03 15:44:00,
2013-02-03 08:47:00,35.7,14.3,30.15,NE,40,0.0,4.0,41,0.00,,,0.00,Wunderground v.1.15,2013-02-03 15:47:00,
2013-02-03 08:48:00,35.7,14.8,30.15,ESE,105,1.0,4.0,42,0.00,,,0.00,Wunderground v.1.15,2013-02-03 15:48:00,
2013-02-03 08:49:00,35.7,14.8,30.15,ESE,112,2.0,4.0,42,0.00,,,0.00,Wunderground v.1.15,2013-02-03 15:49:00,
2013-02-03 08:52:00,36.0,14.5,30.15,NNE,33,4.0,4.0,41,0.00,,,0.00,Wunderground v.1.15,2013-02-03 15:52:00,
2013-02-03 08:53:00,36.0,14.5,30.15,North,4,2.0,5.0,41,0.00,,,0.00,Wunderground v.1.15,2013-02-03 15:53:00,
2013-02-03 08:54:00,36.0,14.5,30.15,NNE,30,2.0,5.0,41,0.00,,,0.00,Wunderground v.1.15,2013-02-03 15:54:00,
2013-02-03 08:57:00,36.1,14.6,30.15,NNW,343,2.0,5.0,41,0.00,,,0.00,Wunderground v.1.15,2013-02-03 15:57:00,
2013-02-03 08:58:00,36.2,14.7,30.14,NE,43,3.0,5.0,41,0.00,,,0.00,Wunderground v.1.15,2013-02-03 15:58:00,
2013-02-03 08:59:00,36.2,14.7,30.14,NNE,33,3.0,5.0,41,0.00,,,0.00,Wunderground v.1.15,2013-02-03 15:59:00,
2013-02-03 09:00:00,36.2,14.7,30.14,NNE,22,4.0,4.0,41,0.00,,,0.00,Wunderground v.1.15,2013-02-03 16:00:00,
2013-02-03 09:02:00,36.4,14.9,30.14,NE,43,2.0,5.0,41,0.00,,,0.00,Wunderground v.1.15,2013-02-03 16:02:00,
2013-02-03 09:04:00,36.5,14.4,30.14,ENE,74,1.0,5.0,40,0.00,,,0.00,Wunderground v.1.15,2013-02-03 16:04:00,
2013-02-03 09:05:00,36.6,14.5,30.14,ENE,71,1.0,5.0,40,0.00,,,0.00,Wunderground v.1.15,2013-02-03 16:05:00,
2013-02-03 09:08:00,37.1,15.0,30.14,ENE,70,2.0,5.0,40,0.00,,,0.00,Wunderground v.1.15,2013-02-03 16:08:00,
2013-02-03 09:09:00,37.2,15.1,30.14,NNE,33,4.0,5.0,40,0.00,,,0.00,Wunderground v.1.15,2013-02-03 16:09:00,
2013-02-03 09:10:00,37.2,14.5,30.14,NE,43,3.0,3.0,39,0.00,,,0.00,Wunderground v.1.15,2013-02-03 16:10:00,
2013-02-03 09:13:00,37.1,14.4,30.13,East,92,1.0,3.0,39,0.00,,,0.00,Wunderground v.1.15,2013-02-03 16:13:00,
2013-02-03 09:14:00,37.1,14.4,30.13,East,92,1.0,3.0,39,0.00,,,0.00,Wunderground v.1.15,2013-02-03 16:14:00,
2013-02-03 09:15:00,37.1,15.0,30.13,East,92,1.0,3.0,40,0.00,,,0.00,Wunderground v.1.15,2013-02-03 16:15:00,
2013-02-03 09:18:00,37.6,14.8,30.13,East,91,1.0,3.0,39,0.00,,,0.00,Wunderground v.1.15,2013-02-03 16:18:00,
2013-02-03 09:19:00,37.9,15.1,30.13,SE,129,0.0,3.0,39,0.00,,,0.00,Wunderground v.1.15,2013-02-03 16:19:00,
2013-02-03 09:20:00,38.0,15.2,30.13,SE,129,0.0,1.0,39,0.00,,,0.00,Wunderground v.1.15,2013-02-03 16:20:00,
2013-02-03 09:23:00,38.6,14.5,30.13,ESE,117,1.0,1.0,37,0.00,,,0.00,Wunderground v.1.15,2013-02-03 16:23:00,
2013-02-03 09:25:00,38.8,14.7,30.13,East,88,0.0,2.0,37,0.00,,,0.00,Wunderground v.1.15,2013-02-03 16:25:00,
2013-02-03 09:28:00,39.1,15.0,30.13,ESE,119,2.0,2.0,37,0.00,,,0.00,Wunderground v.1.15,2013-02-03 16:28:00,
2013-02-03 09:30:00,39.3,15.2,30.13,SE,139,2.0,2.0,37,0.00,,,0.00,Wunderground v.1.15,2013-02-03 16:30:00,
2013-02-03 09:33:00,39.9,15.7,30.12,South,187,2.0,3.0,37,0.00,,,0.00,Wunderground v.1.15,2013-02-03 16:33:00,
2013-02-03 09:35:00,40.2,14.7,30.12,South,186,0.0,3.0,35,0.00,,,0.00,Wunderground v.1.15,2013-02-03 16:35:00,
2013-02-03 09:36:00,40.4,14.9,30.12,South,186,0.0,3.0,35,0.00,,,0.00,Wunderground v.1.15,2013-02-03 16:36:00,
2013-02-03 09:38:00,40.9,15.3,30.12,South,186,0.0,3.0,35,0.00,,,0.00,Wunderground v.1.15,2013-02-03 16:38:00,
2013-02-03 09:40:00,41.3,15.7,30.12,North,356,2.0,2.0,35,0.00,,,0.00,Wunderground v.1.15,2013-02-03 16:40:00,
2013-02-03 09:41:00,41.6,15.9,30.12,North,356,0.0,2.0,35,0.00,,,0.00,Wunderground v.1.15,2013-02-03 16:41:00,
2013-02-03 09:43:00,42.0,15.6,30.11,ENE,75,0.0,2.0,34,0.00,,,0.00,Wunderground v.1.15,2013-02-03 16:43:00,
2013-02-03 09:45:00,42.2,15.1,30.11,NE,54,1.0,4.0,33,0.00,,,0.00,Wunderground v.1.15,2013-02-03 16:45:00,
2013-02-03 09:46:00,42.2,15.8,30.12,NE,45,4.0,6.0,34,0.00,,,0.00,Wunderground v.1.15,2013-02-03 16:46:00,
2013-02-03 09:49:00,41.9,16.9,30.12,East,80,7.0,8.0,36,0.00,,,0.00,Wunderground v.1.15,2013-02-03 16:49:00,
2013-02-03 09:51:00,41.3,16.9,30.11,East,81,5.0,5.0,37,0.00,,,0.00,Wunderground v.1.15,2013-02-03 16:51:00,
2013-02-03 09:54:00,40.8,17.1,30.11,NE,54,5.0,7.0,38,0.00,,,0.00,Wunderground v.1.15,2013-02-03 16:54:00,
2013-02-03 09:56:00,40.4,17.4,30.11,NE,54,3.0,7.0,39,0.00,,,0.00,Wunderground v.1.15,2013-02-03 16:56:00,
2013-02-03 09:59:00,40.1,17.1,30.11,ENE,71,2.0,7.0,39,0.00,,,0.00,Wunderground v.1.15,2013-02-03 16:59:00,
2013-02-03 10:01:00,40.2,17.2,30.11,East,88,3.0,5.0,39,0.00,,,0.00,Wunderground v.1.15,2013-02-03 17:01:00,
2013-02-03 10:04:00,40.1,16.5,30.11,North,8,4.0,5.0,38,0.00,,,0.00,Wunderground v.1.15,2013-02-03 17:04:00,
2013-02-03 10:06:00,40.1,16.5,30.11,NE,40,4.0,5.0,38,0.00,,,0.00,Wunderground v.1.15,2013-02-03 17:06:00,
2013-02-03 10:09:00,40.0,16.4,30.11,ENE,69,2.0,5.0,38,0.00,,,0.00,Wunderground v.1.15,2013-02-03 17:09:00,
2013-02-03 10:11:00,40.1,15.9,30.10,East,81,2.0,5.0,37,0.00,,,0.00,Wunderground v.1.15,2013-02-03 17:11:00,
2013-02-03 10:12:00,40.1,15.9,30.10,ENE,75,3.0,5.0,37,0.00,,,0.00,Wunderground v.1.15,2013-02-03 17:12:00,
2013-02-03 10:14:00,40.1,15.2,30.10,East,97,2.0,5.0,36,0.00,,,0.00,Wunderground v.1.15,2013-02-03 17:14:00,
2013-02-03 10:16:00,40.3,15.4,30.10,ESE,117,0.0,5.0,36,0.00,,,0.00,Wunderground v.1.15,2013-02-03 17:16:00,
2013-02-03 10:17:00,40.4,15.5,30.10,ESE,106,1.0,5.0,36,0.00,,,0.00,Wunderground v.1.15,2013-02-03 17:17:00,
2013-02-03 10:19:00,40.7,14.5,30.10,SE,127,1.0,5.0,34,0.00,,,0.00,Wunderground v.1.15,2013-02-03 17:19:00,
2013-02-03 10:21:00,40.9,14.0,30.10,ESE,106,0.0,3.0,33,0.00,,,0.00,Wunderground v.1.15,2013-02-03 17:21:00,
2013-02-03 10:22:00,40.9,14.0,30.10,NE,40,2.0,3.0,33,0.00,,,0.00,Wunderground v.1.15,2013-02-03 17:22:00,
2013-02-03 10:25:00,41.3,14.3,30.10,ENE,61,2.0,4.0,33,0.00,,,0.00,Wunderground v.1.15,2013-02-03 17:25:00,
2013-02-03 10:26:00,41.3,13.6,30.10,NNE,12,2.0,5.0,32,0.00,,,0.00,Wunderground v.1.15,2013-02-03 17:26:00,
2013-02-03 10:27:00,41.3,13.6,30.10,North,351,1.0,5.0,32,0.00,,,0.00,Wunderground v.1.15,2013-02-03 17:27:00,
2013-02-03 10:30:00,41.3,13.6,30.10,NNE,32,1.0,2.0,32,0.00,,,0.00,Wunderground v.1.15,2013-02-03 17:30:00,
2013-02-03 10:32:00,41.5,13.8,30.09,East,84,3.0,5.0,32,0.00,,,0.00,Wunderground v.1.15,2013-02-03 17:32:00,
2013-02-03 10:35:00,41.8,14.1,30.09,ENE,63,1.0,5.0,32,0.00,,,0.00,Wunderground v.1.15,2013-02-03 17:35:00,
2013-02-03 10:37:00,42.0,14.2,30.09,ESE,114,1.0,5.0,32,0.00,,,0.00,Wunderground v.1.15,2013-02-03 17:37:00,
2013-02-03 10:40:00,42.3,13.8,30.09,ENE,76,2.0,3.0,31,0.00,,,0.00,Wunderground v.1.15,2013-02-03 17:40:00,
2013-02-03 10:42:00,42.3,14.5,30.09,East,81,6.0,6.0,32,0.00,,,0.00,Wunderground v.1.15,2013-02-03 17:42:00,
2013-02-03 10:45:00,42.5,14.7,30.09,West,262,1.0,6.0,32,0.00,,,0.00,Wunderground v.1.15,2013-02-03 17:45:00,
2013-02-03 10:47:00,42.7,14.8,30.08,East,99,2.0,6.0,32,0.00,,,0.00,Wunderground v.1.15,2013-02-03 17:47:00,
2013-02-03 10:51:00,42.8,14.2,30.08,ENE,72,3.0,3.0,31,0.00,,,0.00,Wunderground v.1.15,2013-02-03 17:51:00,
2013-02-03 10:52:00,42.9,14.3,30.08,NNE,33,3.0,4.0,31,0.00,,,0.00,Wunderground v.1.15,2013-02-03 17:52:00,
2013-02-03 10:53:00,42.9,14.3,30.08,NNE,20,2.0,4.0,31,0.00,,,0.00,Wunderground v.1.15,2013-02-03 17:53:00,
2013-02-03 10:56:00,43.0,15.1,30.08,SE,126,1.0,4.0,32,0.00,,,0.00,Wunderground v.1.15,2013-02-03 17:56:00,
2013-02-03 10:57:00,43.3,14.6,30.08,SE,133,2.0,4.0,31,0.00,,,0.00,Wunderground v.1.15,2013-02-03 17:57:00,
2013-02-03 10:58:00,43.3,14.6,30.08,SE,133,1.0,4.0,31,0.00,,,0.00,Wunderground v.1.15,2013-02-03 17:58:00,
2013-02-03 11:01:00,43.7,15.0,30.08,East,81,3.0,3.0,31,0.00,,,0.00,Wunderground v.1.15,2013-02-03 18:01:00,
2013-02-03 11:02:00,43.8,15.1,30.08,SE,132,2.0,4.0,31,0.00,,,0.00,Wunderground v.1.15,2013-02-03 18:02:00,
2013-02-03 11:03:00,43.9,15.2,30.08,ESE,117,1.0,4.0,31,0.00,,,0.00,Wunderground v.1.15,2013-02-03 18:03:00,
2013-02-03 11:06:00,44.0,15.3,30.08,East,97,3.0,4.0,31,0.00,,,0.00,Wunderground v.1.15,2013-02-03 18:06:00,
2013-02-03 11:07:00,44.0,15.3,30.07,ESE,103,1.0,4.0,31,0.00,,,0.00,Wunderground v.1.15,2013-02-03 18:07:00,
2013-02-03 11:08:00,44.0,15.3,30.07,East,87,2.0,4.0,31,0.00,,,0.00,Wunderground v.1.15,2013-02-03 18:08:00,
2013-02-03 11:11:00,44.0,15.3,30.07,East,79,1.0,3.0,31,0.00,,,0.00,Wunderground v.1.15,2013-02-03 18:11:00,
2013-02-03 11:13:00,44.1,15.3,30.07,ESE,121,1.0,3.0,31,0.00,,,0.00,Wunderground v.1.15,2013-02-03 18:13:00,
2013-02-03 11:17:00,44.1,15.3,30.07,ENE,74,0.0,3.0,31,0.00,,,0.00,Wunderground v.1.15,2013-02-03 18:17:00,
2013-02-03 11:18:00,44.1,15.3,30.07,ENE,74,0.0,3.0,31,0.00,,,0.00,Wunderground v.1.15,2013-02-03 18:18:00,
2013-02-03 11:22:00,44.2,15.4,30.07,ESE,115,2.0,3.0,31,0.00,,,0.00,Wunderground v.1.15,2013-02-03 18:22:00,
2013-02-03 11:23:00,44.2,15.4,30.06,ESE,107,1.0,3.0,31,0.00,,,0.00,Wunderground v.1.15,2013-02-03 18:23:00,
2013-02-03 11:27:00,44.6,15.0,30.06,SE,134,0.0,3.0,30,0.00,,,0.00,Wunderground v.1.15,2013-02-03 18:27:00,
2013-02-03 11:28:00,44.7,15.1,30.06,SE,134,0.0,3.0,30,0.00,,,0.00,Wunderground v.1.15,2013-02-03 18:28:00,
2013-02-03 11:32:00,45.3,15.6,30.06,SSE,167,2.0,2.0,30,0.00,,,0.00,Wunderground v.1.15,2013-02-03 18:32:00,
2013-02-03 11:33:00,45.5,15.0,30.06,ESE,108,0.0,2.0,29,0.00,,,0.00,Wunderground v.1.15,2013-02-03 18:33:00,
2013-02-03 11:34:00,45.6,15.1,30.06,ESE,108,1.0,2.0,29,0.00,,,0.00,Wunderground v.1.15,2013-02-03 18:34:00,
2013-02-03 11:37:00,46.0,14.7,30.05,ESE,108,3.0,4.0,28,0.00,,,0.00,Wunderground v.1.15,2013-02-03 18:37:00,
2013-02-03 11:38:00,45.9,14.6,30.05,ESE,105,1.0,4.0,28,0.00,,,0.00,Wunderground v.1.15,2013-02-03 18:38:00,
2013-02-03 11:39:00,45.9,14.6,30.05,ESE,104,0.0,4.0,28,0.00,,,0.00,Wunderground v.1.15,2013-02-03 18:39:00,
2013-02-03 11:43:00,45.7,14.4,30.05,East,86,1.0,3.0,28,0.00,,,0.00,Wunderground v.1.15,2013-02-03 18:43:00,
2013-02-03 11:44:00,45.6,14.3,30.05,SSE,151,2.0,3.0,28,0.00,,,0.00,Wunderground v.1.15,2013-02-03 18:44:00,
2013-02-03 11:48:00,45.9,14.6,30.04,ENE,74,1.0,3.0,28,0.00,,,0.00,Wunderground v.1.15,2013-02-03 18:48:00,
2013-02-03 11:49:00,45.9,14.6,30.04,East,94,4.0,4.0,28,0.00,,,0.00,Wunderground v.1.15,2013-02-03 18:49:00,
2013-02-03 11:53:00,45.8,14.5,30.04,ENE,78,0.0,3.0,28,0.00,,,0.00,Wunderground v.1.15,2013-02-03 18:53:00,
2013-02-03 11:54:00,45.9,14.6,30.04,SE,144,0.0,3.0,28,0.00,,,0.00,Wunderground v.1.15,2013-02-03 18:54:00,
2013-02-03 11:58:00,46.5,15.1,30.03,SE,132,2.0,4.0,28,0.00,,,0.00,Wunderground v.1.15,2013-02-03 18:58:00,
2013-02-03 11:59:00,46.5,15.1,30.03,East,79,2.0,4.0,28,0.00,,,0.00,Wunderground v.1.15,2013-02-03 18:59:00,
2013-02-03 12:03:00,46.7,15.3,30.03,ESE,115,0.0,4.0,28,0.00,,,0.00,Wunderground v.1.15,2013-02-03 19:03:00,
2013-02-03 12:04:00,46.8,15.4,30.03,ESE,105,0.0,4.0,28,0.00,,,0.00,Wunderground v.1.15,2013-02-03 19:04:00,
2013-02-03 12:08:00,47.7,16.1,30.02,East,93,4.0,4.0,28,0.00,,,0.00,Wunderground v.1.15,2013-02-03 19:08:00,
2013-02-03 12:09:00,47.7,16.1,30.02,East,87,5.0,5.0,28,0.00,,,0.00,Wunderground v.1.15,2013-02-03 19:09:00,
2013-02-03 12:13:00,48.1,16.5,30.01,East,95,6.0,6.0,28,0.00,,,0.00,Wunderground v.1.15,2013-02-03 19:13:00,
2013-02-03 12:14:00,48.1,16.5,30.01,East,92,6.0,7.0,28,0.00,,,0.00,Wunderground v.1.15,2013-02-03 19:14:00,
2013-02-03 12:15:00,48.1,15.6,30.01,ENE,65,3.0,7.0,27,0.00,,,0.00,Wunderground v.1.15,2013-02-03 19:15:00,
2013-02-03 12:19:00,48.0,15.6,30.01,NE,51,5.0,7.0,27,0.00,,,0.00,Wunderground v.1.15,2013-02-03 19:19:00,
2013-02-03 12:20:00,48.0,16.4,30.01,NE,56,4.0,4.0,28,0.00,,,0.00,Wunderground v.1.15,2013-02-03 19:20:00,
2013-02-03 12:24:00,48.0,16.4,30.00,East,79,4.0,7.0,28,0.00,,,0.00,Wunderground v.1.15,2013-02-03 19:24:00,
2013-02-03 12:25:00,48.2,16.6,30.00,East,84,5.0,7.0,28,0.00,,,0.00,Wunderground v.1.15,2013-02-03 19:25:00,
2013-02-03 12:29:00,48.4,15.9,30.00,ESE,111,3.0,7.0,27,0.00,,,0.00,Wunderground v.1.15,2013-02-03 19:29:00,
2013-02-03 12:30:00,48.4,15.9,29.99,ENE,71,2.0,4.0,27,0.00,,,0.00,Wunderground v.1.15,2013-02-03 19:30:00,
2013-02-03 12:34:00,48.5,16.0,29.99,NNE,27,1.0,4.0,27,0.00,,,0.00,Wunderground v.1.15,2013-02-03 19:34:00,
2013-02-03 12:35:00,48.6,16.1,29.99,East,89,3.0,4.0,27,0.00,,,0.00,Wunderground v.1.15,2013-02-03 19:35:00,
2013-02-03 12:39:00,48.8,16.2,29.99,NNE,27,2.0,4.0,27,0.00,,,0.00,Wunderground v.1.15,2013-02-03 19:39:00,
2013-02-03 12:40:00,48.8,16.2,29.99,ENE,77,2.0,3.0,27,0.00,,,0.00,Wunderground v.1.15,2013-02-03 19:40:00,
2013-02-03 12:44:00,49.1,17.3,29.99,SSW,203,4.0,5.0,28,0.00,,,0.00,Wunderground v.1.15,2013-02-03 19:44:00,
2013-02-03 12:45:00,49.2,16.6,29.99,SSE,155,3.0,5.0,27,0.00,,,0.00,Wunderground v.1.15,2013-02-03 19:45:00,
2013-02-03 12:46:00,49.2,16.6,29.99,SSE,151,2.0,5.0,27,0.00,,,0.00,Wunderground v.1.15,2013-02-03 19:46:00,
2013-02-03 12:49:00,49.3,16.7,29.99,East,101,2.0,5.0,27,0.00,,,0.00,Wunderground v.1.15,2013-02-03 19:49:00,
2013-02-03 12:50:00,49.3,17.5,29.99,SE,144,1.0,3.0,28,0.00,,,0.00,Wunderground v.1.15,2013-02-03 19:50:00,
2013-02-03 12:51:00,49.3,17.5,29.99,ENE,71,2.0,3.0,28,0.00,,,0.00,Wunderground v.1.15,2013-02-03 19:51:00,
2013-02-03 12:54:00,49.4,16.8,29.98,ESE,108,3.0,6.0,27,0.00,,,0.00,Wunderground v.1.15,2013-02-03 19:54:00,
2013-02-03 12:55:00,49.3,16.7,29.98,East,101,4.0,6.0,27,0.00,,,0.00,Wunderground v.1.15,2013-02-03 19:55:00,
2013-02-03 12:56:00,49.2,15.7,29.98,East,101,4.0,6.0,26,0.00,,,0.00,Wunderground v.1.15,2013-02-03 19:56:00,
2013-02-03 12:59:00,48.9,15.5,29.98,ENE,61,3.0,6.0,26,0.00,,,0.00,Wunderground v.1.15,2013-02-03 19:59:00,
2013-02-03 13:00:00,48.8,15.4,29.98,East,93,4.0,4.0,26,0.00,,,0.00,Wunderground v.1.15,2013-02-03 20:00:00,
2013-02-03 13:01:00,48.8,16.2,29.98,East,96,2.0,4.0,27,0.00,,,0.00,Wunderground v.1.15,2013-02-03 20:01:00,
2013-02-03 13:05:00,48.7,16.2,29.97,ENE,71,3.0,7.0,27,0.00,,,0.00,Wunderground v.1.15,2013-02-03 20:05:00,
2013-02-03 13:06:00,48.6,16.1,29.97,ENE,68,4.0,7.0,27,0.00,,,0.00,Wunderground v.1.15,2013-02-03 20:06:00,
2013-02-03 13:10:00,48.5,16.0,29.97,ENE,67,2.0,3.0,27,0.00,,,0.00,Wunderground v.1.15,2013-02-03 20:10:00,
2013-02-03 13:11:00,48.5,16.0,29.97,East,79,2.0,3.0,27,0.00,,,0.00,Wunderground v.1.15,2013-02-03 20:11:00,
2013-02-03 13:15:00,49.0,16.4,29.97,ESE,108,3.0,4.0,27,0.00,,,0.00,Wunderground v.1.15,2013-02-03 20:15:00,
2013-02-03 13:16:00,49.1,16.5,29.97,ESE,108,2.0,4.0,27,0.00,,,0.00,Wunderground v.1.15,2013-02-03 20:16:00,
2013-02-03 13:20:00,49.3,15.8,29.96,ENE,63,4.0,4.0,26,0.00,,,0.00,Wunderground v.1.15,2013-02-03 20:20:00,
2013-02-03 13:21:00,49.3,15.8,29.96,NNE,12,5.0,5.0,26,0.00,,,0.00,Wunderground v.1.15,2013-02-03 20:21:00,
2013-02-03 13:25:00,49.2,15.7,29.96,ENE,68,5.0,5.0,26,0.00,,,0.00,Wunderground v.1.15,2013-02-03 20:25:00,
2013-02-03 13:26:00,49.1,15.6,29.95,ENE,74,4.0,5.0,26,0.00,,,0.00,Wunderground v.1.15,2013-02-03 20:26:00,
2013-02-03 13:30:00,49.2,16.6,29.96,East,101,4.0,4.0,27,0.00,,,0.00,Wunderground v.1.15,2013-02-03 20:30:00,
2013-02-03 13:31:00,49.2,16.6,29.95,ENE,72,3.0,5.0,27,0.00,,,0.00,Wunderground v.1.15,2013-02-03 20:31:00,
2013-02-03 13:35:00,49.2,16.6,29.95,East,89,2.0,5.0,27,0.00,,,0.00,Wunderground v.1.15,2013-02-03 20:35:00,
2013-02-03 13:36:00,49.3,15.8,29.95,East,89,6.0,6.0,26,0.00,,,0.00,Wunderground v.1.15,2013-02-03 20:36:00,
2013-02-03 13:37:00,49.3,15.8,29.95,East,86,5.0,6.0,26,0.00,,,0.00,Wunderground v.1.15,2013-02-03 20:37:00,
2013-02-03 13:40:00,49.1,15.6,29.95,SE,127,3.0,3.0,26,0.00,,,0.00,Wunderground v.1.15,2013-02-03 20:40:00,
2013-02-03 13:41:00,49.0,15.6,29.95,East,93,4.0,6.0,26,0.00,,,0.00,Wunderground v.1.15,2013-02-03 20:41:00,
2013-02-03 13:42:00,49.0,15.6,29.95,ENE,58,3.0,6.0,26,0.00,,,0.00,Wunderground v.1.15,2013-02-03 20:42:00,
2013-02-03 13:45:00,48.8,15.4,29.95,NNE,27,2.0,6.0,26,0.00,,,0.00,Wunderground v.1.15,2013-02-03 20:45:00,
2013-02-03 13:46:00,48.8,15.4,29.94,NNE,27,1.0,6.0,26,0.00,,,0.00,Wunderground v.1.15,2013-02-03 20:46:00,
2013-02-03 13:47:00,48.8,15.4,29.94,NNE,27,0.0,6.0,26,0.00,,,0.00,Wunderground v.1.15,2013-02-03 20:47:00,
2013-02-03 13:51:00,48.9,15.5,29.94,NNE,27,0.0,2.0,26,0.00,,,0.00,Wunderground v.1.15,2013-02-03 20:51:00,
2013-02-03 13:52:00,49.1,15.6,29.94,NNE,27,1.0,2.0,26,0.00,,,0.00,Wunderground v.1.15,2013-02-03 20:52:00,
2013-02-03 13:56:00,49.6,15.2,29.94,NNE,30,2.0,3.0,25,0.00,,,0.00,Wunderground v.1.15,2013-02-03 20:56:00,
2013-02-03 13:57:00,49.7,15.2,29.94,NNE,30,1.0,3.0,25,0.00,,,0.00,Wunderground v.1.15,2013-02-03 20:57:00,
2013-02-03 14:01:00,49.8,15.3,29.94,East,81,2.0,3.0,25,0.00,,,0.00,Wunderground v.1.15,2013-02-03 21:01:00,
2013-02-03 14:02:00,49.8,15.3,29.94,ENE,75,2.0,3.0,25,0.00,,,0.00,Wunderground v.1.15,2013-02-03 21:02:00,
2013-02-03 14:06:00,50.0,15.5,29.93,East,81,2.0,5.0,25,0.00,,,0.00,Wunderground v.1.15,2013-02-03 21:06:00,
2013-02-03 14:07:00,50.0,14.6,29.93,East,79,1.0,5.0,24,0.00,,,0.00,Wunderground v.1.15,2013-02-03 21:07:00,
2013-02-03 14:11:00,50.1,14.7,29.93,East,82,3.0,5.0,24,0.00,,,0.00,Wunderground v.1.15,2013-02-03 21:11:00,
2013-02-03 14:12:00,50.1,14.7,29.93,ENE,74,2.0,5.0,24,0.00,,,0.00,Wunderground v.1.15,2013-02-03 21:12:00,
2013-02-03 14:17:00,50.0,14.6,29.93,ESE,110,3.0,5.0,24,0.00,,,0.00,Wunderground v.1.15,2013-02-03 21:17:00,
2013-02-03 14:18:00,49.9,14.5,29.93,East,94,3.0,5.0,24,0.00,,,0.00,Wunderground v.1.15,2013-02-03 21:18:00,
2013-02-03 14:22:00,49.8,14.4,29.93,NE,46,5.0,7.0,24,0.00,,,0.00,Wunderground v.1.15,2013-02-03 21:22:00,
2013-02-03 14:23:00,49.7,14.3,29.93,East,84,3.0,7.0,24,0.00,,,0.00,Wunderground v.1.15,2013-02-03 21:23:00,
2013-02-03 14:27:00,49.5,14.1,29.93,SE,136,2.0,7.0,24,0.00,,,0.00,Wunderground v.1.15,2013-02-03 21:27:00,
2013-02-03 14:28:00,49.4,15.0,29.93,ESE,120,2.0,7.0,25,0.00,,,0.00,Wunderground v.1.15,2013-02-03 21:28:00,
2013-02-03 14:32:00,49.3,14.9,29.93,ENE,70,1.0,4.0,25,0.00,,,0.00,Wunderground v.1.15,2013-02-03 21:32:00,
2013-02-03 14:33:00,49.3,14.9,29.93,ESE,108,2.0,4.0,25,0.00,,,0.00,Wunderground v.1.15,2013-02-03 21:33:00,
2013-02-03 14:37:00,49.7,15.2,29.93,East,87,2.0,4.0,25,0.00,,,0.00,Wunderground v.1.15,2013-02-03 21:37:00,
2013-02-03 14:38:00,49.7,14.3,29.93,East,81,2.0,4.0,24,0.00,,,0.00,Wunderground v.1.15,2013-02-03 21:38:00,
2013-02-03 14:42:00,49.7,14.3,29.93,East,96,1.0,3.0,24,0.00,,,0.00,Wunderground v.1.15,2013-02-03 21:42:00,
2013-02-03 14:43:00,49.7,14.3,29.93,East,96,0.0,3.0,24,0.00,,,0.00,Wunderground v.1.15,2013-02-03 21:43:00,
2013-02-03 14:47:00,49.8,14.4,29.93,East,86,2.0,6.0,24,0.00,,,0.00,Wunderground v.1.15,2013-02-03 21:47:00,
2013-02-03 14:48:00,49.8,13.4,29.93,ENE,70,4.0,6.0,23,0.00,,,0.00,Wunderground v.1.15,2013-02-03 21:48:00,
2013-02-03 14:52:00,49.9,13.5,29.93,NE,40,5.0,5.0,23,0.00,,,0.00,Wunderground v.1.15,2013-02-03 21:52:00,
2013-02-03 14:53:00,50.0,13.6,29.93,East,81,4.0,5.0,23,0.00,,,0.00,Wunderground v.1.15,2013-02-03 21:53:00,
2013-02-03 14:57:00,49.9,12.5,29.93,East,88,2.0,5.0,22,0.00,,,0.00,Wunderground v.1.15,2013-02-03 21:57:00,
2013-02-03 14:58:00,49.9,13.5,29.93,East,82,1.0,5.0,23,0.00,,,0.00,Wunderground v.1.15,2013-02-03 21:58:00,
2013-02-03 14:59:00,49.9,13.5,29.93,ENE,63,3.0,5.0,23,0.00,,,0.00,Wunderground v.1.15,2013-02-03 21:59:00,
2013-02-03 15:02:00,49.9,11.4,29.93,ESE,108,6.0,6.0,21,0.00,,,0.00,Wunderground v.1.15,2013-02-03 22:02:00,
2013-02-03 15:03:00,49.9,11.4,29.93,East,89,4.0,7.0,21,0.00,,,0.00,Wunderground v.1.15,2013-02-03 22:03:00,
2013-02-03 15:04:00,49.9,11.4,29.93,East,79,6.0,7.0,21,0.00,,,0.00,Wunderground v.1.15,2013-02-03 22:04:00,
2013-02-03 15:08:00,49.7,12.3,29.93,ENE,68,4.0,7.0,22,0.00,,,0.00,Wunderground v.1.15,2013-02-03 22:08:00,
2013-02-03 15:09:00,49.7,12.3,29.94,East,82,6.0,7.0,22,0.00,,,0.00,Wunderground v.1.15,2013-02-03 22:09:00,
2013-02-03 15:13:00,49.6,13.3,29.94,ENE,68,1.0,5.0,23,0.00,,,0.00,Wunderground v.1.15,2013-02-03 22:13:00,
2013-02-03 15:14:00,49.5,13.2,29.94,NE,40,3.0,5.0,23,0.00,,,0.00,Wunderground v.1.15,2013-02-03 22:14:00,
2013-02-03 15:18:00,49.5,13.2,29.94,East,81,4.0,5.0,23,0.00,,,0.00,Wunderground v.1.15,2013-02-03 22:18:00,
2013-02-03 15:19:00,49.5,13.2,29.94,NE,37,3.0,5.0,23,0.00,,,0.00,Wunderground v.1.15,2013-02-03 22:19:00,
2013-02-03 15:23:00,49.4,13.1,29.94,NE,40,2.0,5.0,23,0.00,,,0.00,Wunderground v.1.15,2013-02-03 22:23:00,
2013-02-03 15:24:00,49.5,13.2,29.94,East,96,3.0,5.0,23,0.00,,,0.00,Wunderground v.1.15,2013-02-03 22:24:00,
2013-02-03 15:28:00,49.4,13.1,29.94,ENE,71,2.0,5.0,23,0.00,,,0.00,Wunderground v.1.15,2013-02-03 22:28:00,
2013-02-03 15:29:00,49.4,13.1,29.94,ENE,71,0.0,5.0,23,0.00,,,0.00,Wunderground v.1.15,2013-02-03 22:29:00,
2013-02-03 15:33:00,49.4,13.1,29.94,East,83,2.0,4.0,23,0.00,,,0.00,Wunderground v.1.15,2013-02-03 22:33:00,
2013-02-03 15:34:00,49.4,13.1,29.94,ENE,77,2.0,4.0,23,0.00,,,0.00,Wunderground v.1.15,2013-02-03 22:34:00,
2013-02-03 15:38:00,49.3,13.0,29.94,ENE,68,3.0,4.0,23,0.00,,,0.00,Wunderground v.1.15,2013-02-03 22:38:00,
2013-02-03 15:39:00,49.3,13.0,29.94,ENE,70,0.0,4.0,23,0.00,,,0.00,Wunderground v.1.15,2013-02-03 22:39:00,
2013-02-03 15:44:00,49.3,13.0,29.94,ENE,78,2.0,3.0,23,0.00,,,0.00,Wunderground v.1.15,2013-02-03 22:44:00,
2013-02-03 15:45:00,49.2,12.9,29.94,ENE,78,3.0,3.0,23,0.00,,,0.00,Wunderground v.1.15,2013-02-03 22:45:00,
2013-02-03 15:49:00,49.3,12.0,29.94,ENE,68,2.0,4.0,22,0.00,,,0.00,Wunderground v.1.15,2013-02-03 22:49:00,
2013-02-03 15:50:00,49.3,12.0,29.94,ENE,77,1.0,3.0,22,0.00,,,0.00,Wunderground v.1.15,2013-02-03 22:50:00,
2013-02-03 15:54:00,49.3,12.0,29.94,East,83,2.0,4.0,22,0.00,,,0.00,Wunderground v.1.15,2013-02-03 22:54:00,
2013-02-03 15:55:00,49.3,12.0,29.94,East,82,2.0,4.0,22,0.00,,,0.00,Wunderground v.1.15,2013-02-03 22:55:00,
2013-02-03 15:59:00,49.3,12.0,29.95,East,79,2.0,4.0,22,0.00,,,0.00,Wunderground v.1.15,2013-02-03 22:59:00,
2013-02-03 16:00:00,49.3,12.0,29.95,ENE,77,1.0,2.0,22,0.00,,,0.00,Wunderground v.1.15,2013-02-03 23:00:00,
2013-02-03 16:04:00,49.5,13.2,29.95,NNE,30,3.0,4.0,23,0.00,,,0.00,Wunderground v.1.15,2013-02-03 23:04:00,
2013-02-03 16:05:00,49.5,13.2,29.95,NNE,26,3.0,4.0,23,0.00,,,0.00,Wunderground v.1.15,2013-02-03 23:05:00,
2013-02-03 16:10:00,49.5,12.2,29.94,East,79,2.0,2.0,22,0.00,,,0.00,Wunderground v.1.15,2013-02-03 23:10:00,
2013-02-03 16:15:00,49.5,12.2,29.94,NE,37,3.0,4.0,22,0.00,,,0.00,Wunderground v.1.15,2013-02-03 23:15:00,
2013-02-03 16:20:00,49.4,13.1,29.94,NNE,30,2.0,3.0,23,0.00,,,0.00,Wunderground v.1.15,2013-02-03 23:20:00,
2013-02-03 16:25:00,49.1,12.8,29.95,North,1,1.0,3.0,23,0.00,,,0.00,Wunderground v.1.15,2013-02-03 23:25:00,
2013-02-03 16:26:00,49.1,12.8,29.95,NNE,13,3.0,4.0,23,0.00,,,0.00,Wunderground v.1.15,2013-02-03 23:26:00,
2013-02-03 16:30:00,48.9,12.7,29.95,NNE,30,1.0,2.0,23,0.00,,,0.00,Wunderground v.1.15,2013-02-03 23:30:00,
2013-02-03 16:31:00,48.9,12.7,29.95,NNE,30,1.0,2.0,23,0.00,,,0.00,Wunderground v.1.15,2013-02-03 23:31:00,
2013-02-03 16:35:00,49.0,12.7,29.95,East,79,1.0,2.0,23,0.00,,,0.00,Wunderground v.1.15,2013-02-03 23:35:00,
2013-02-03 16:36:00,49.0,12.7,29.95,East,79,0.0,2.0,23,0.00,,,0.00,Wunderground v.1.15,2013-02-03 23:36:00,
2013-02-03 16:40:00,48.9,12.7,29.95,WNW,291,1.0,1.0,23,0.00,,,0.00,Wunderground v.1.15,2013-02-03 23:40:00,
2013-02-03 16:41:00,48.8,12.6,29.95,WNW,287,1.0,1.0,23,0.00,,,0.00,Wunderground v.1.15,2013-02-03 23:41:00,
2013-02-03 16:45:00,48.3,12.2,29.94,WNW,287,0.0,1.0,23,0.00,,,0.00,Wunderground v.1.15,2013-02-03 23:45:00,
2013-02-03 16:46:00,48.3,12.2,29.94,WNW,287,0.0,1.0,23,0.00,,,0.00,Wunderground v.1.15,2013-02-03 23:46:00,
2013-02-03 16:51:00,47.7,12.6,29.95,West,266,1.0,1.0,24,0.00,,,0.00,Wunderground v.1.15,2013-02-03 23:51:00,
2013-02-03 16:56:00,47.1,13.0,29.95,WSW,256,3.0,4.0,25,0.00,,,0.00,Wunderground v.1.15,2013-02-03 23:56:00,
2013-02-03 17:01:00,46.3,13.2,29.95,WSW,252,3.0,4.0,26,0.00,,,0.00,Wunderground v.1.15,2013-02-04 00:01:00,
2013-02-03 17:06:00,45.8,12.8,29.95,WSW,256,2.0,4.0,26,0.00,,,0.00,Wunderground v.1.15,2013-02-04 00:06:00,
2013-02-03 17:07:00,45.7,12.7,29.95,WSW,250,1.0,4.0,26,0.00,,,0.00,Wunderground v.1.15,2013-02-04 00:07:00,
2013-02-03 17:11:00,45.2,13.1,29.96,SSW,205,1.0,2.0,27,0.00,,,0.00,Wunderground v.1.15,2013-02-04 00:11:00,
2013-02-03 17:12:00,45.2,13.1,29.96,SSW,205,1.0,2.0,27,0.00,,,0.00,Wunderground v.1.15,2013-02-04 00:12:00,
2013-02-03 17:16:00,44.6,12.6,29.96,WSW,257,4.0,6.0,27,0.00,,,0.00,Wunderground v.1.15,2013-02-04 00:16:00,
2013-02-03 17:17:00,44.5,12.5,29.96,WSW,257,3.0,6.0,27,0.00,,,0.00,Wunderground v.1.15,2013-02-04 00:17:00,
2013-02-03 17:21:00,43.9,12.8,29.96,SW,230,4.0,5.0,28,0.00,,,0.00,Wunderground v.1.15,2013-02-04 00:21:00,
2013-02-03 17:22:00,43.9,12.8,29.96,West,259,4.0,5.0,28,0.00,,,0.00,Wunderground v.1.15,2013-02-04 00:22:00,
2013-02-03 17:26:00,43.6,13.4,29.96,SW,228,2.0,5.0,29,0.00,,,0.00,Wunderground v.1.15,2013-02-04 00:26:00,
2013-02-03 17:27:00,43.6,13.4,29.96,SW,222,2.0,5.0,29,0.00,,,0.00,Wunderground v.1.15,2013-02-04 00:27:00,
2013-02-03 17:31:00,43.8,13.6,29.96,SW,217,2.0,3.0,29,0.00,,,0.00,Wunderground v.1.15,2013-02-04 00:31:00,
2013-02-03 17:32:00,43.7,13.5,29.96,SSW,210,2.0,3.0,29,0.00,,,0.00,Wunderground v.1.15,2013-02-04 00:32:00,
2013-02-03 17:36:00,43.0,13.6,29.97,West,264,4.0,6.0,30,0.00,,,0.00,Wunderground v.1.15,2013-02-04 00:36:00,
2013-02-03 17:37:00,42.9,13.5,29.97,West,259,5.0,6.0,30,0.00,,,0.00,Wunderground v.1.15,2013-02-04 00:37:00,
2013-02-03 17:41:00,42.3,13.0,29.97,West,266,3.0,4.0,30,0.00,,,0.00,Wunderground v.1.15,2013-02-04 00:41:00,
2013-02-03 17:42:00,42.4,13.1,29.97,WSW,253,3.0,4.0,30,0.00,,,0.00,Wunderground v.1.15,2013-02-04 00:42:00,
2013-02-03 17:46:00,42.3,13.0,29.97,WSW,246,5.0,7.0,30,0.00,,,0.00,Wunderground v.1.15,2013-02-04 00:46:00,
2013-02-03 17:47:00,42.2,13.7,29.97,West,264,3.0,7.0,31,0.00,,,0.00,Wunderground v.1.15,2013-02-04 00:47:00,
2013-02-03 17:48:00,42.0,13.5,29.97,WSW,252,5.0,7.0,31,0.00,,,0.00,Wunderground v.1.15,2013-02-04 00:48:00,
2013-02-03 17:51:00,41.6,13.2,29.97,SW,214,3.0,4.0,31,0.00,,,0.00,Wunderground v.1.15,2013-02-04 00:51:00,
2013-02-03 17:52:00,41.7,13.2,29.97,SW,225,3.0,4.0,31,0.00,,,0.00,Wunderground v.1.15,2013-02-04 00:52:00,
2013-02-03 17:53:00,41.8,13.3,29.97,SSW,203,2.0,4.0,31,0.00,,,0.00,Wunderground v.1.15,2013-02-04 00:53:00,
2013-02-03 17:56:00,42.0,13.5,29.97,SW,228,2.0,4.0,31,0.00,,,0.00,Wunderground v.1.15,2013-02-04 00:56:00,
2013-02-03 17:57:00,42.0,13.5,29.97,WSW,238,2.0,4.0,31,0.00,,,0.00,Wunderground v.1.15,2013-02-04 00:57:00,
2013-02-03 17:58:00,42.0,12.8,29.97,WSW,256,5.0,5.0,30,0.00,,,0.00,Wunderground v.1.15,2013-02-04 00:58:00,
2013-02-03 18:02:00,41.1,13.4,29.97,WSW,256,7.0,7.0,32,0.00,,,0.00,Wunderground v.1.15,2013-02-04 01:02:00,
2013-02-03 18:03:00,40.9,13.3,29.97,WSW,257,5.0,7.0,32,0.00,,,0.00,Wunderground v.1.15,2013-02-04 01:03:00,
2013-02-03 18:06:00,40.8,13.2,29.96,SSW,198,7.0,7.0,32,0.00,,,0.00,Wunderground v.1.15,2013-02-04 01:06:00,
2013-02-03 18:07:00,40.7,13.1,29.96,SSW,203,5.0,7.0,32,0.00,,,0.00,Wunderground v.1.15,2013-02-04 01:07:00,
2013-02-03 18:08:00,40.7,13.1,29.96,SSW,201,3.0,7.0,32,0.00,,,0.00,Wunderground v.1.15,2013-02-04 01:08:00,
2013-02-03 18:12:00,41.2,12.8,29.96,WSW,253,5.0,5.0,31,0.00,,,0.00,Wunderground v.1.15,2013-02-04 01:12:00,
2013-02-03 18:13:00,41.4,13.0,29.96,West,277,4.0,5.0,31,0.00,,,0.00,Wunderground v.1.15,2013-02-04 01:13:00,
2013-02-03 18:17:00,40.1,12.6,29.97,WSW,253,7.0,8.0,32,0.00,,,0.00,Wunderground v.1.15,2013-02-04 01:17:00,
2013-02-03 18:18:00,39.7,12.9,29.97,WSW,249,6.0,8.0,33,0.00,,,0.00,Wunderground v.1.15,2013-02-04 01:18:00,
2013-02-03 18:22:00,39.4,13.3,29.97,WSW,240,3.0,5.0,34,0.00,,,0.00,Wunderground v.1.15,2013-02-04 01:22:00,
2013-02-03 18:23:00,39.3,13.2,29.97,SW,233,3.0,5.0,34,0.00,,,0.00,Wunderground v.1.15,2013-02-04 01:23:00,
2013-02-03 18:27:00,39.2,13.1,29.97,WSW,257,6.0,7.0,34,0.00,,,0.00,Wunderground v.1.15,2013-02-04 01:27:00,
2013-02-03 18:28:00,38.9,12.9,29.97,West,259,6.0,7.0,34,0.00,,,0.00,Wunderground v.1.15,2013-02-04 01:28:00,
2013-02-03 18:29:00,38.9,12.9,29.97,WSW,250,5.0,7.0,34,0.00,,,0.00,Wunderground v.1.15,2013-02-04 01:29:00,
2013-02-03 18:32:00,38.8,13.4,29.97,SW,231,2.0,4.0,35,0.00,,,0.00,Wunderground v.1.15,2013-02-04 01:32:00,
2013-02-03 18:33:00,38.8,13.4,29.97,WSW,242,4.0,5.0,35,0.00,,,0.00,Wunderground v.1.15,2013-02-04 01:33:00,
2013-02-03 18:34:00,38.8,12.8,29.97,SW,236,4.0,5.0,34,0.00,,,0.00,Wunderground v.1.15,2013-02-04 01:34:00,
2013-02-03 18:37:00,39.2,13.8,29.98,WSW,249,3.0,5.0,35,0.00,,,0.00,Wunderground v.1.15,2013-02-04 01:37:00,
2013-02-03 18:38:00,39.3,13.9,29.98,West,260,3.0,5.0,35,0.00,,,0.00,Wunderground v.1.15,2013-02-04 01:38:00,
2013-02-03 18:39:00,39.3,13.9,29.98,WSW,255,3.0,5.0,35,0.00,,,0.00,Wunderground v.1.15,2013-02-04 01:39:00,
2013-02-03 18:42:00,38.9,13.5,29.97,WSW,257,5.0,6.0,35,0.00,,,0.00,Wunderground v.1.15,2013-02-04 01:42:00,
2013-02-03 18:44:00,38.6,13.9,29.97,West,263,7.0,7.0,36,0.00,,,0.00,Wunderground v.1.15,2013-02-04 01:44:00,
2013-02-03 18:47:00,38.2,13.6,29.97,WSW,238,5.0,7.0,36,0.00,,,0.00,Wunderground v.1.15,2013-02-04 01:47:00,
2013-02-03 18:49:00,38.0,13.4,29.97,SW,221,4.0,7.0,36,0.00,,,0.00,Wunderground v.1.15,2013-02-04 01:49:00,
2013-02-03 18:52:00,37.5,13.6,29.97,WSW,256,5.0,8.0,37,0.00,,,0.00,Wunderground v.1.15,2013-02-04 01:52:00,
2013-02-03 18:54:00,37.8,13.2,29.97,WSW,240,5.0,8.0,36,0.00,,,0.00,Wunderground v.1.15,2013-02-04 01:54:00,
2013-02-03 18:57:00,38.5,13.8,29.96,WSW,238,3.0,8.0,36,0.00,,,0.00,Wunderground v.1.15,2013-02-04 01:57:00,
2013-02-03 18:59:00,38.7,13.4,29.96,WSW,253,4.0,8.0,35,0.00,,,0.00,Wunderground v.1.15,2013-02-04 01:59:00,
2013-02-03 19:02:00,39.6,14.8,29.96,South,181,6.0,7.0,36,0.00,,,0.00,Wunderground v.1.15,2013-02-04 02:02:00,
2013-02-03 19:04:00,39.7,14.9,29.97,SSE,163,4.0,7.0,36,0.00,,,0.00,Wunderground v.1.15,2013-02-04 02:04:00,
2013-02-03 19:08:00,39.7,15.5,29.97,SSE,148,3.0,7.0,37,0.00,,,0.00,Wunderground v.1.15,2013-02-04 02:08:00,
2013-02-03 19:09:00,39.5,15.3,29.97,SSW,195,2.0,7.0,37,0.00,,,0.00,Wunderground v.1.15,2013-02-04 02:09:00,
2013-02-03 19:10:00,39.4,15.3,29.97,South,188,2.0,4.0,37,0.00,,,0.00,Wunderground v.1.15,2013-02-04 02:10:00,
2013-02-03 19:13:00,39.0,16.7,29.96,South,185,5.0,5.0,40,0.00,,,0.00,Wunderground v.1.15,2013-02-04 02:13:00,
2013-02-03 19:14:00,38.8,15.9,29.97,SW,222,4.0,6.0,39,0.00,,,0.00,Wunderground v.1.15,2013-02-04 02:14:00,
2013-02-03 19:15:00,38.7,15.8,29.97,SW,228,2.0,6.0,39,0.00,,,0.00,Wunderground v.1.15,2013-02-04 02:15:00,
2013-02-03 19:18:00,38.5,15.7,29.97,SSW,199,4.0,6.0,39,0.00,,,0.00,Wunderground v.1.15,2013-02-04 02:18:00,
2013-02-03 19:19:00,38.3,14.9,29.97,WSW,238,4.0,6.0,38,0.00,,,0.00,Wunderground v.1.15,2013-02-04 02:19:00,
2013-02-03 19:20:00,38.3,14.9,29.97,WSW,252,3.0,3.0,38,0.00,,,0.00,Wunderground v.1.15,2013-02-04 02:20:00,
2013-02-03 19:23:00,38.1,14.7,29.97,SSW,201,2.0,6.0,38,0.00,,,0.00,Wunderground v.1.15,2013-02-04 02:23:00,
2013-02-03 19:24:00,38.0,13.4,29.97,SSE,161,2.0,6.0,36,0.00,,,0.00,Wunderground v.1.15,2013-02-04 02:24:00,
2013-02-03 19:25:00,38.0,13.4,29.97,SSE,155,3.0,6.0,36,0.00,,,0.00,Wunderground v.1.15,2013-02-04 02:25:00,
2013-02-03 19:28:00,37.9,13.3,29.97,SW,214,2.0,6.0,36,0.00,,,0.00,Wunderground v.1.15,2013-02-04 02:28:00,
2013-02-03 19:29:00,37.8,13.2,29.97,WSW,250,5.0,6.0,36,0.00,,,0.00,Wunderground v.1.15,2013-02-04 02:29:00,
2013-02-03 19:30:00,37.7,12.5,29.97,WSW,256,5.0,5.0,35,0.00,,,0.00,Wunderground v.1.15,2013-02-04 02:30:00,
2013-02-03 19:33:00,37.4,12.2,29.98,West,267,8.0,9.0,35,0.00,,,0.00,Wunderground v.1.15,2013-02-04 02:33:00,
2013-02-03 19:34:00,37.1,11.9,29.98,West,262,6.0,9.0,35,0.00,,,0.00,Wunderground v.1.15,2013-02-04 02:34:00,
2013-02-03 19:35:00,36.9,11.8,29.98,WSW,255,7.0,9.0,35,0.00,,,0.00,Wunderground v.1.15,2013-02-04 02:35:00,
2013-02-03 19:38:00,36.4,11.9,29.98,WSW,252,3.0,9.0,36,0.00,,,0.00,Wunderground v.1.15,2013-02-04 02:38:00,
2013-02-03 19:39:00,36.3,11.9,29.98,SSW,198,2.0,9.0,36,0.00,,,0.00,Wunderground v.1.15,2013-02-04 02:39:00,
2013-02-03 19:40:00,36.3,12.5,29.98,SSW,212,2.0,5.0,37,0.00,,,0.00,Wunderground v.1.15,2013-02-04 02:40:00,
2013-02-03 19:43:00,36.1,13.5,29.98,WSW,246,2.0,5.0,39,0.00,,,0.00,Wunderground v.1.15,2013-02-04 02:43:00,
2013-02-03 19:44:00,36.0,12.2,29.98,SW,224,3.0,5.0,37,0.00,,,0.00,Wunderground v.1.15,2013-02-04 02:44:00,
2013-02-03 19:45:00,35.9,12.1,29.98,SW,222,3.0,5.0,37,0.00,,,0.00,Wunderground v.1.15,2013-02-04 02:45:00,
2013-02-03 19:49:00,35.0,11.3,29.98,West,259,5.0,9.0,37,0.00,,,0.00,Wunderground v.1.15,2013-02-04 02:49:00,
2013-02-03 19:50:00,34.7,11.6,29.98,SW,226,3.0,4.0,38,0.00,,,0.00,Wunderground v.1.15,2013-02-04 02:50:00,
2013-02-03 19:54:00,34.5,11.5,29.97,SW,214,5.0,6.0,38,0.00,,,0.00,Wunderground v.1.15,2013-02-04 02:54:00,
2013-02-03 19:55:00,34.5,11.5,29.97,SW,231,6.0,6.0,38,0.00,,,0.00,Wunderground v.1.15,2013-02-04 02:55:00,
2013-02-03 19:56:00,34.4,10.8,29.97,WSW,249,5.0,8.0,37,0.00,,,0.00,Wunderground v.1.15,2013-02-04 02:56:00,
2013-02-03 19:59:00,34.5,10.9,29.97,West,269,5.0,8.0,37,0.00,,,0.00,Wunderground v.1.15,2013-02-04 02:59:00,
2013-02-03 20:00:00,34.6,11.0,29.97,West,268,4.0,5.0,37,0.00,,,0.00,Wunderground v.1.15,2013-02-04 03:00:00,
2013-02-03 20:01:00,34.7,11.0,29.97,WSW,240,5.0,6.0,37,0.00,,,0.00,Wunderground v.1.15,2013-02-04 03:01:00,
2013-02-03 20:04:00,34.4,10.8,29.98,WSW,255,4.0,6.0,37,0.00,,,0.00,Wunderground v.1.15,2013-02-04 03:04:00,
2013-02-03 20:06:00,34.3,10.7,29.98,SSW,200,2.0,6.0,37,0.00,,,0.00,Wunderground v.1.15,2013-02-04 03:06:00,
2013-02-03 20:09:00,34.7,11.0,29.98,SW,233,4.0,6.0,37,0.00,,,0.00,Wunderground v.1.15,2013-02-04 03:09:00,
2013-02-03 20:11:00,35.0,10.1,29.98,WSW,246,6.0,6.0,35,0.00,,,0.00,Wunderground v.1.15,2013-02-04 03:11:00,
2013-02-03 20:15:00,34.5,10.2,29.98,West,259,8.0,10.0,36,0.00,,,0.00,Wunderground v.1.15,2013-02-04 03:15:00,
2013-02-03 20:16:00,34.1,9.9,29.98,WSW,250,8.0,10.0,36,0.00,,,0.00,Wunderground v.1.15,2013-02-04 03:16:00,
2013-02-03 20:17:00,34.0,10.4,29.98,WSW,252,8.0,10.0,37,0.00,,,0.00,Wunderground v.1.15,2013-02-04 03:17:00,
2013-02-03 20:20:00,34.4,10.8,29.97,WSW,249,7.0,7.0,37,0.00,,,0.00,Wunderground v.1.15,2013-02-04 03:20:00,
2013-02-03 20:21:00,34.6,10.3,29.97,West,259,7.0,8.0,36,0.00,,,0.00,Wunderground v.1.15,2013-02-04 03:21:00,
2013-02-03 20:22:00,34.7,9.8,29.97,WSW,256,7.0,8.0,35,0.00,,,0.00,Wunderground v.1.15,2013-02-04 03:22:00,
2013-02-03 20:25:00,35.2,9.6,29.97,WSW,250,6.0,8.0,34,0.00,,,0.00,Wunderground v.1.15,2013-02-04 03:25:00,
2013-02-03 20:26:00,35.7,9.4,29.98,WSW,243,4.0,8.0,33,0.00,,,0.00,Wunderground v.1.15,2013-02-04 03:26:00,
2013-02-03 20:27:00,35.9,9.5,29.98,SSW,210,1.0,8.0,33,0.00,,,0.00,Wunderground v.1.15,2013-02-04 03:27:00,
2013-02-03 20:30:00,35.8,10.1,29.98,West,278,3.0,5.0,34,0.00,,,0.00,Wunderground v.1.15,2013-02-04 03:30:00,
2013-02-03 20:31:00,35.6,9.9,29.98,SSW,194,1.0,5.0,34,0.00,,,0.00,Wunderground v.1.15,2013-02-04 03:31:00,
2013-02-03 20:32:00,35.6,9.9,29.98,SSW,194,1.0,5.0,34,0.00,,,0.00,Wunderground v.1.15,2013-02-04 03:32:00,
2013-02-03 20:35:00,35.4,9.8,29.99,SSW,194,1.0,5.0,34,0.00,,,0.00,Wunderground v.1.15,2013-02-04 03:35:00,
2013-02-03 20:36:00,35.4,10.4,29.99,South,184,1.0,5.0,35,0.00,,,0.00,Wunderground v.1.15,2013-02-04 03:36:00,
2013-02-03 20:37:00,35.4,10.4,29.99,SSW,195,2.0,5.0,35,0.00,,,0.00,Wunderground v.1.15,2013-02-04 03:37:00,
2013-02-03 20:40:00,35.2,9.6,29.99,WSW,255,1.0,1.0,34,0.00,,,0.00,Wunderground v.1.15,2013-02-04 03:40:00,
2013-02-03 20:41:00,35.2,9.6,29.99,West,270,0.0,2.0,34,0.00,,,0.00,Wunderground v.1.15,2013-02-04 03:41:00,
2013-02-03 20:42:00,35.2,9.6,29.99,West,270,0.0,2.0,34,0.00,,,0.00,Wunderground v.1.15,2013-02-04 03:42:00,
2013-02-03 20:45:00,35.1,10.2,29.99,SSW,197,2.0,3.0,35,0.00,,,0.00,Wunderground v.1.15,2013-02-04 03:45:00,
2013-02-03 20:46:00,35.0,9.4,29.99,West,260,5.0,5.0,34,0.00,,,0.00,Wunderground v.1.15,2013-02-04 03:46:00,
2013-02-03 20:47:00,35.0,9.4,29.99,West,263,5.0,6.0,34,0.00,,,0.00,Wunderground v.1.15,2013-02-04 03:47:00,
2013-02-03 20:50:00,35.3,8.3,29.99,West,259,3.0,3.0,32,0.00,,,0.00,Wunderground v.1.15,2013-02-04 03:50:00,
2013-02-03 20:51:00,35.5,8.5,29.99,SW,225,4.0,4.0,32,0.00,,,0.00,Wunderground v.1.15,2013-02-04 03:51:00,
2013-02-03 20:52:00,35.6,8.6,29.99,WSW,240,4.0,4.0,32,0.00,,,0.00,Wunderground v.1.15,2013-02-04 03:52:00,
2013-02-03 20:56:00,35.1,7.5,29.99,WSW,255,6.0,9.0,31,0.00,,,0.00,Wunderground v.1.15,2013-02-04 03:56:00,
2013-02-03 20:57:00,35.0,7.4,30.00,West,281,3.0,9.0,31,0.00,,,0.00,Wunderground v.1.15,2013-02-04 03:57:00,
2013-02-03 20:58:00,35.1,8.2,30.00,SE,141,0.0,9.0,32,0.00,,,0.00,Wunderground v.1.15,2013-02-04 03:58:00,
2013-02-03 21:01:00,35.1,8.2,30.00,WSW,252,3.0,4.0,32,0.00,,,0.00,Wunderground v.1.15,2013-02-04 04:01:00,
2013-02-03 21:02:00,35.1,8.2,30.00,West,264,3.0,4.0,32,0.00,,,0.00,Wunderground v.1.15,2013-02-04 04:02:00,
2013-02-03 21:03:00,35.1,8.2,30.00,West,259,2.0,4.0,32,0.00,,,0.00,Wunderground v.1.15,2013-02-04 04:03:00,
2013-02-03 21:06:00,34.7,7.1,30.01,WNW,291,0.0,6.0,31,0.00,,,0.00,Wunderground v.1.15,2013-02-04 04:06:00,
2013-02-03 21:07:00,34.4,7.5,30.01,ESE,113,1.0,6.0,32,0.00,,,0.00,Wunderground v.1.15,2013-02-04 04:07:00,
2013-02-03 21:08:00,34.1,7.3,30.01,SE,127,1.0,6.0,32,0.00,,,0.00,Wunderground v.1.15,2013-02-04 04:08:00,
2013-02-03 21:11:00,33.5,7.4,30.01,WSW,238,2.0,3.0,33,0.00,,,0.00,Wunderground v.1.15,2013-02-04 04:11:00,
2013-02-03 21:12:00,33.5,8.1,30.01,West,260,4.0,4.0,34,0.00,,,0.00,Wunderground v.1.15,2013-02-04 04:12:00,
2013-02-03 21:13:00,33.5,8.1,30.01,West,260,6.0,7.0,34,0.00,,,0.00,Wunderground v.1.15,2013-02-04 04:13:00,
2013-02-03 21:16:00,33.1,7.7,30.01,West,262,8.0,9.0,34,0.00,,,0.00,Wunderground v.1.15,2013-02-04 04:16:00,
2013-02-03 21:17:00,32.7,7.4,30.01,WSW,252,6.0,9.0,34,0.00,,,0.00,Wunderground v.1.15,2013-02-04 04:17:00,
2013-02-03 21:18:00,32.7,7.4,30.01,WSW,257,6.0,9.0,34,0.00,,,0.00,Wunderground v.1.15,2013-02-04 04:18:00,
2013-02-03 21:21:00,33.5,8.1,30.00,SW,215,6.0,8.0,34,0.00,,,0.00,Wunderground v.1.15,2013-02-04 04:21:00,
2013-02-03 21:23:00,34.1,8.0,30.00,WSW,249,5.0,9.0,33,0.00,,,0.00,Wunderground v.1.15,2013-02-04 04:23:00,
2013-02-03 21:26:00,35.0,8.1,30.00,SSW,201,7.0,9.0,32,0.00,,,0.00,Wunderground v.1.15,2013-02-04 04:26:00,
2013-02-03 21:28:00,35.3,7.6,30.01,SW,215,4.0,9.0,31,0.00,,,0.00,Wunderground v.1.15,2013-02-04 04:28:00,
2013-02-03 21:31:00,35.1,7.5,30.01,WSW,240,4.0,8.0,31,0.00,,,0.00,Wunderground v.1.15,2013-02-04 04:31:00,
2013-02-03 21:33:00,35.2,7.5,30.01,WSW,240,5.0,8.0,31,0.00,,,0.00,Wunderground v.1.15,2013-02-04 04:33:00,
2013-02-03 21:36:00,35.1,7.5,30.01,SW,226,6.0,8.0,31,0.00,,,0.00,Wunderground v.1.15,2013-02-04 04:36:00,
2013-02-03 21:38:00,34.3,6.7,30.01,WSW,252,7.0,8.0,31,0.00,,,0.00,Wunderground v.1.15,2013-02-04 04:38:00,
2013-02-03 21:42:00,33.2,6.5,30.01,WSW,240,6.0,8.0,32,0.00,,,0.00,Wunderground v.1.15,2013-02-04 04:42:00,
2013-02-03 21:43:00,33.1,6.4,30.01,SW,233,7.0,8.0,32,0.00,,,0.00,Wunderground v.1.15,2013-02-04 04:43:00,
2013-02-03 21:44:00,33.1,6.4,30.01,SW,222,7.0,8.0,32,0.00,,,0.00,Wunderground v.1.15,2013-02-04 04:44:00,
2013-02-03 21:47:00,33.1,6.4,30.01,SSW,212,7.0,9.0,32,0.00,,,0.00,Wunderground v.1.15,2013-02-04 04:47:00,
2013-02-03 21:48:00,33.2,7.2,30.01,SW,231,7.0,9.0,33,0.00,,,0.00,Wunderground v.1.15,2013-02-04 04:48:00,
2013-02-03 21:49:00,33.3,6.6,30.01,SW,235,6.0,9.0,32,0.00,,,0.00,Wunderground v.1.15,2013-02-04 04:49:00,
2013-02-03 21:52:00,33.6,6.1,30.01,West,263,7.0,9.0,31,0.00,,,0.00,Wunderground v.1.15,2013-02-04 04:52:00,
2013-02-03 21:53:00,33.7,6.2,30.01,WSW,256,9.0,9.0,31,0.00,,,0.00,Wunderground v.1.15,2013-02-04 04:53:00,
2013-02-03 21:54:00,33.7,6.2,30.01,West,260,8.0,9.0,31,0.00,,,0.00,Wunderground v.1.15,2013-02-04 04:54:00,
2013-02-03 21:57:00,34.0,5.8,30.01,WSW,253,8.0,9.0,30,0.00,,,0.00,Wunderground v.1.15,2013-02-04 04:57:00,
2013-02-03 21:59:00,34.3,6.0,30.01,WSW,256,7.0,9.0,30,0.00,,,0.00,Wunderground v.1.15,2013-02-04 04:59:00,
2013-02-03 22:00:00,34.7,5.6,30.01,WSW,255,8.0,8.0,29,0.00,,,0.00,Wunderground v.1.15,2013-02-04 05:00:00,
2013-02-03 22:01:00,35.1,5.2,30.01,WSW,257,8.0,8.0,28,0.00,,,0.00,Wunderground v.1.15,2013-02-04 05:01:00,
2013-02-03 22:03:00,35.3,5.4,30.01,WSW,257,8.0,8.0,28,0.00,,,0.00,Wunderground v.1.15,2013-02-04 05:03:00,
2013-02-03 22:05:00,35.3,5.4,30.01,WSW,257,9.0,10.0,28,0.00,,,0.00,Wunderground v.1.15,2013-02-04 05:05:00,
2013-02-03 22:06:00,35.2,5.3,30.01,WSW,252,8.0,10.0,28,0.00,,,0.00,Wunderground v.1.15,2013-02-04 05:06:00,
2013-02-03 22:08:00,35.4,4.7,30.01,West,260,7.0,10.0,27,0.00,,,0.00,Wunderground v.1.15,2013-02-04 05:08:00,
2013-02-03 22:09:00,35.5,4.8,30.01,WSW,257,8.0,10.0,27,0.00,,,0.00,Wunderground v.1.15,2013-02-04 05:09:00,
2013-02-03 22:10:00,35.5,4.8,30.01,West,259,8.0,9.0,27,0.00,,,0.00,Wunderground v.1.15,2013-02-04 05:10:00,
2013-02-03 22:11:00,35.5,4.8,30.01,West,259,6.0,9.0,27,0.00,,,0.00,Wunderground v.1.15,2013-02-04 05:11:00,
2013-02-03 22:13:00,35.3,5.4,30.01,WSW,253,8.0,10.0,28,0.00,,,0.00,Wunderground v.1.15,2013-02-04 05:13:00,
2013-02-03 22:14:00,35.4,4.7,30.01,WSW,256,10.0,10.0,27,0.00,,,0.00,Wunderground v.1.15,2013-02-04 05:14:00,
2013-02-03 22:15:00,35.5,4.8,30.01,West,263,6.0,10.0,27,0.00,,,0.00,Wunderground v.1.15,2013-02-04 05:15:00,
2013-02-03 22:16:00,35.6,4.8,30.01,SW,231,5.0,10.0,27,0.00,,,0.00,Wunderground v.1.15,2013-02-04 05:16:00,
2013-02-03 22:18:00,36.1,4.5,30.01,WSW,250,4.0,10.0,26,0.00,,,0.00,Wunderground v.1.15,2013-02-04 05:18:00,
2013-02-03 22:19:00,36.4,3.9,30.01,SSW,201,3.0,10.0,25,0.00,,,0.00,Wunderground v.1.15,2013-02-04 05:19:00,
2013-02-03 22:20:00,37.1,4.5,30.01,West,260,9.0,9.0,25,0.00,,,0.00,Wunderground v.1.15,2013-02-04 05:20:00,
2013-02-03 22:21:00,37.2,4.5,30.01,West,259,8.0,9.0,25,0.00,,,0.00,Wunderground v.1.15,2013-02-04 05:21:00,
2013-02-03 22:23:00,37.2,4.5,30.01,West,262,8.0,9.0,25,0.00,,,0.00,Wunderground v.1.15,2013-02-04 05:23:00,
2013-02-03 22:25:00,37.1,4.5,30.01,WSW,257,7.0,10.0,25,0.00,,,0.00,Wunderground v.1.15,2013-02-04 05:25:00,
2013-02-03 22:26:00,36.8,4.2,30.01,WSW,258,9.0,10.0,25,0.00,,,0.00,Wunderground v.1.15,2013-02-04 05:26:00,
2013-02-03 22:29:00,36.5,4.8,30.01,West,260,7.0,10.0,26,0.00,,,0.00,Wunderground v.1.15,2013-02-04 05:29:00,
2013-02-03 22:30:00,36.3,4.6,30.01,WSW,249,9.0,9.0,26,0.00,,,0.00,Wunderground v.1.15,2013-02-04 05:30:00,
2013-02-03 22:31:00,36.7,3.2,30.01,WSW,249,3.0,9.0,24,0.00,,,0.00,Wunderground v.1.15,2013-02-04 05:31:00,
2013-02-03 22:34:00,37.6,4.9,30.01,WSW,256,6.0,9.0,25,0.00,,,0.00,Wunderground v.1.15,2013-02-04 05:34:00,
2013-02-03 22:35:00,37.7,5.0,30.01,WSW,250,5.0,9.0,25,0.00,,,0.00,Wunderground v.1.15,2013-02-04 05:35:00,
2013-02-03 22:36:00,37.7,5.0,30.02,West,264,5.0,9.0,25,0.00,,,0.00,Wunderground v.1.15,2013-02-04 05:36:00,
2013-02-03 22:37:00,37.7,4.1,30.02,West,259,4.0,9.0,24,0.00,,,0.00,Wunderground v.1.15,2013-02-04 05:37:00,
2013-02-03 22:39:00,38.7,4.0,30.02,SW,224,5.0,9.0,23,0.00,,,0.00,Wunderground v.1.15,2013-02-04 05:39:00,
2013-02-03 22:40:00,39.5,3.7,30.02,WSW,257,7.0,7.0,22,0.00,,,0.00,Wunderground v.1.15,2013-02-04 05:40:00,
2013-02-03 22:41:00,39.9,3.1,30.02,WSW,253,3.0,7.0,21,0.00,,,0.00,Wunderground v.1.15,2013-02-04 05:41:00,
2013-02-03 22:42:00,40.4,3.5,30.01,WSW,243,4.0,7.0,21,0.00,,,0.00,Wunderground v.1.15,2013-02-04 05:42:00,
2013-02-03 22:44:00,40.9,2.8,30.01,WSW,256,6.0,9.0,20,0.00,,,0.00,Wunderground v.1.15,2013-02-04 05:44:00,
2013-02-03 22:45:00,41.3,3.2,30.02,West,262,5.0,9.0,20,0.00,,,0.00,Wunderground v.1.15,2013-02-04 05:45:00,
2013-02-03 22:46:00,41.6,3.4,30.02,WSW,253,5.0,9.0,20,0.00,,,0.00,Wunderground v.1.15,2013-02-04 05:46:00,
2013-02-03 22:47:00,41.8,2.5,30.02,WSW,250,3.0,9.0,19,0.00,,,0.00,Wunderground v.1.15,2013-02-04 05:47:00,
2013-02-03 22:49:00,41.9,3.7,30.02,WSW,250,4.0,9.0,20,0.00,,,0.00,Wunderground v.1.15,2013-02-04 05:49:00,
2013-02-03 22:51:00,41.9,2.6,30.02,West,263,3.0,5.0,19,0.00,,,0.00,Wunderground v.1.15,2013-02-04 05:51:00,
2013-02-03 22:52:00,42.0,2.6,30.01,WSW,252,3.0,5.0,19,0.00,,,0.00,Wunderground v.1.15,2013-02-04 05:52:00,
2013-02-03 22:55:00,42.3,2.9,30.02,West,260,4.0,5.0,19,0.00,,,0.00,Wunderground v.1.15,2013-02-04 05:55:00,
2013-02-03 22:56:00,42.2,2.8,30.01,WSW,243,0.0,5.0,19,0.00,,,0.00,Wunderground v.1.15,2013-02-04 05:56:00,
2013-02-03 22:58:00,42.2,2.8,30.02,NE,40,1.0,5.0,19,0.00,,,0.00,Wunderground v.1.15,2013-02-04 05:58:00,
2013-02-03 23:00:00,41.8,2.5,30.02,West,270,0.0,2.0,19,0.00,,,0.00,Wunderground v.1.15,2013-02-04 06:00:00,
2013-02-03 23:01:00,41.7,2.4,30.02,WSW,250,1.0,2.0,19,0.00,,,0.00,Wunderground v.1.15,2013-02-04 06:01:00,
2013-02-03 23:03:00,41.4,3.3,30.01,WSW,255,1.0,2.0,20,0.00,,,0.00,Wunderground v.1.15,2013-02-04 06:03:00,
2013-02-03 23:05:00,41.0,2.9,30.01,West,259,1.0,2.0,20,0.00,,,0.00,Wunderground v.1.15,2013-02-04 06:05:00,
2013-02-03 23:06:00,40.8,2.7,30.01,WSW,253,1.0,2.0,20,0.00,,,0.00,Wunderground v.1.15,2013-02-04 06:06:00,
2013-02-03 23:07:00,40.8,2.7,30.01,WSW,253,0.0,2.0,20,0.00,,,0.00,Wunderground v.1.15,2013-02-04 06:07:00,
2013-02-03 23:08:00,40.7,2.7,30.01,SW,215,0.0,2.0,20,0.00,,,0.00,Wunderground v.1.15,2013-02-04 06:08:00,
2013-02-03 23:11:00,40.5,2.5,30.02,SSW,203,1.0,2.0,20,0.00,,,0.00,Wunderground v.1.15,2013-02-04 06:11:00,
2013-02-03 23:12:00,40.6,2.6,30.02,North,358,2.0,2.0,20,0.00,,,0.00,Wunderground v.1.15,2013-02-04 06:12:00,
2013-02-03 23:13:00,40.6,2.6,30.02,NW,314,0.0,2.0,20,0.00,,,0.00,Wunderground v.1.15,2013-02-04 06:13:00,
2013-02-03 23:16:00,40.7,2.7,30.02,NNW,329,0.0,2.0,20,0.00,,,0.00,Wunderground v.1.15,2013-02-04 06:16:00,
2013-02-03 23:17:00,40.7,2.7,30.02,ENE,77,2.0,2.0,20,0.00,,,0.00,Wunderground v.1.15,2013-02-04 06:17:00,
2013-02-03 23:18:00,40.6,2.6,30.02,SW,228,2.0,2.0,20,0.00,,,0.00,Wunderground v.1.15,2013-02-04 06:18:00,
2013-02-03 23:21:00,40.3,2.3,30.02,West,280,3.0,3.0,20,0.00,,,0.00,Wunderground v.1.15,2013-02-04 06:21:00,
2013-02-03 23:22:00,40.3,2.3,30.03,WNW,300,1.0,3.0,20,0.00,,,0.00,Wunderground v.1.15,2013-02-04 06:22:00,
2013-02-03 23:23:00,40.3,2.3,30.03,WNW,300,1.0,3.0,20,0.00,,,0.00,Wunderground v.1.15,2013-02-04 06:23:00,
2013-02-03 23:26:00,40.3,2.3,30.02,West,274,2.0,8.0,20,0.00,,,0.00,Wunderground v.1.15,2013-02-04 06:26:00,
2013-02-03 23:27:00,40.3,2.3,30.03,WSW,249,4.0,8.0,20,0.00,,,0.00,Wunderground v.1.15,2013-02-04 06:27:00,
2013-02-03 23:28:00,40.2,3.3,30.03,WSW,253,8.0,8.0,21,0.00,,,0.00,Wunderground v.1.15,2013-02-04 06:28:00,
2013-02-03 23:31:00,39.1,3.4,30.03,SSW,195,2.0,6.0,22,0.00,,,0.00,Wunderground v.1.15,2013-02-04 06:31:00,
2013-02-03 23:32:00,38.9,3.2,30.02,West,262,5.0,6.0,22,0.00,,,0.00,Wunderground v.1.15,2013-02-04 06:32:00,
2013-02-03 23:33:00,38.9,3.2,30.02,West,260,7.0,7.0,22,0.00,,,0.00,Wunderground v.1.15,2013-02-04 06:33:00,
2013-02-03 23:36:00,38.4,3.8,30.03,West,269,5.0,8.0,23,0.00,,,0.00,Wunderground v.1.15,2013-02-04 06:36:00,
2013-02-03 23:37:00,37.9,3.3,30.03,West,266,4.0,8.0,23,0.00,,,0.00,Wunderground v.1.15,2013-02-04 06:37:00,
2013-02-03 23:38:00,37.8,3.2,30.03,West,259,3.0,8.0,23,0.00,,,0.00,Wunderground v.1.15,2013-02-04 06:38:00,
2013-02-03 23:41:00,37.3,3.7,30.03,West,259,7.0,9.0,24,0.00,,,0.00,Wunderground v.1.15,2013-02-04 06:41:00,
2013-02-03 23:42:00,37.3,2.8,30.03,WSW,253,5.0,9.0,23,0.00,,,0.00,Wunderground v.1.15,2013-02-04 06:42:00,
2013-02-03 23:43:00,37.3,2.8,30.03,WSW,253,3.0,9.0,23,0.00,,,0.00,Wunderground v.1.15,2013-02-04 06:43:00,
2013-02-03 23:46:00,37.9,3.3,30.03,West,259,6.0,9.0,23,0.00,,,0.00,Wunderground v.1.15,2013-02-04 06:46:00,
2013-02-03 23:47:00,37.8,3.2,30.02,West,267,7.0,9.0,23,0.00,,,0.00,Wunderground v.1.15,2013-02-04 06:47:00,
2013-02-03 23:48:00,37.8,3.2,30.02,West,262,9.0,9.0,23,0.00,,,0.00,Wunderground v.1.15,2013-02-04 06:48:00,
2013-02-03 23:51:00,36.4,3.9,30.02,WSW,240,6.0,8.0,25,0.00,,,0.00,Wunderground v.1.15,2013-02-04 06:51:00,
2013-02-03 23:53:00,36.5,3.1,30.02,West,260,4.0,8.0,24,0.00,,,0.00,Wunderground v.1.15,2013-02-04 06:53:00,
2013-02-03 23:56:00,37.1,3.6,30.02,West,260,9.0,10.0,24,0.00,,,0.00,Wunderground v.1.15,2013-02-04 06:56:00,
2013-02-03 23:58:00,36.6,4.0,30.02,WSW,257,6.0,10.0,25,0.00,,,0.00,Wunderground v.1.15,2013-02-04 06:58:00,